Time,TemperatureF,DewpointF,PressureIn,WindDirection,WindDirectionDegrees,WindSpeedMPH,WindSpeedGustMPH,Humidity,HourlyPrecipIn,Conditions,Clouds,dailyrainin,SoftwareType,DateUTC
2013-04-06 00:00:00,63.3,58.7,29.98,NW,323,6.0,6.0,85,0.00,,,0.00,Wunderground v.1.15,2013-04-06 04:00:00,
2013-04-06 00:02:00,63.4,58.5,29.98,NW,322,4.0,9.0,84,0.00,,,0.00,Wunderground v.1.15,2013-04-06 04:02:00,
2013-04-06 00:05:00,63.4,58.5,29.98,NNW,342,3.0,9.0,84,0.00,,,0.00,Wunderground v.1.15,2013-04-06 04:05:00,
2013-04-06 00:06:00,63.4,58.5,29.98,WNW,301,4.0,9.0,84,0.00,,,0.00,Wunderground v.1.15,2013-04-06 04:06:00,
2013-04-06 00:08:00,63.4,58.5,29.98,NW,305,5.0,9.0,84,0.00,,,0.00,Wunderground v.1.15,2013-04-06 04:08:00,
2013-04-06 00:12:00,63.5,58.2,29.98,NNW,333,8.0,8.0,83,0.00,,,0.00,Wunderground v.1.15,2013-04-06 04:12:00,
2013-04-06 00:14:00,63.6,58.3,29.98,WNW,295,3.0,8.0,83,0.00,,,0.00,Wunderground v.1.15,2013-04-06 04:14:00,
2013-04-06 00:15:00,63.6,58.3,29.98,NNE,23,5.0,8.0,83,0.00,,,0.00,Wunderground v.1.15,2013-04-06 04:15:00,
2013-04-06 00:18:00,63.6,58.3,29.98,NNE,12,1.0,8.0,83,0.00,,,0.00,Wunderground v.1.15,2013-04-06 04:18:00,
2013-04-06 00:22:00,63.7,58.4,29.99,NW,314,4.0,7.0,83,0.00,,,0.00,Wunderground v.1.15,2013-04-06 04:22:00,
2013-04-06 00:23:00,63.8,58.5,29.98,WNW,298,6.0,7.0,83,0.00,,,0.00,Wunderground v.1.15,2013-04-06 04:23:00,
2013-04-06 00:24:00,63.7,58.4,29.98,West,280,8.0,8.0,83,0.00,,,0.00,Wunderground v.1.15,2013-04-06 04:24:00,
2013-04-06 00:28:00,63.8,58.2,29.99,North,7,12.0,12.0,82,0.00,,,0.00,Wunderground v.1.15,2013-04-06 04:28:00,
2013-04-06 00:30:00,63.8,58.2,29.99,WNW,283,6.0,6.0,82,0.00,,,0.00,Wunderground v.1.15,2013-04-06 04:30:00,
2013-04-06 00:32:00,63.9,58.6,29.99,WNW,301,7.0,7.0,83,0.00,,,0.00,Wunderground v.1.15,2013-04-06 04:32:00,
2013-04-06 00:35:00,63.9,58.6,29.99,NNW,337,5.0,7.0,83,0.00,,,0.00,Wunderground v.1.15,2013-04-06 04:35:00,
2013-04-06 00:37:00,63.9,58.6,29.99,NW,319,11.0,11.0,83,0.00,,,0.00,Wunderground v.1.15,2013-04-06 04:37:00,
2013-04-06 00:38:00,63.9,58.3,29.99,NW,314,8.0,11.0,82,0.00,,,0.00,Wunderground v.1.15,2013-04-06 04:38:00,
2013-04-06 00:42:00,63.9,58.3,29.99,NNW,337,14.0,14.0,82,0.00,,,0.00,Wunderground v.1.15,2013-04-06 04:42:00,
2013-04-06 00:43:00,63.9,58.0,29.99,NW,319,4.0,14.0,81,0.00,,,0.00,Wunderground v.1.15,2013-04-06 04:43:00,
2013-04-06 00:46:00,63.9,58.0,29.99,NW,305,8.0,14.0,81,0.00,,,0.00,Wunderground v.1.15,2013-04-06 04:46:00,
2013-04-06 00:49:00,64.0,58.1,29.99,NNW,330,12.0,14.0,81,0.00,,,0.00,Wunderground v.1.15,2013-04-06 04:49:00,
2013-04-06 00:50:00,64.0,58.1,29.99,NNW,334,5.0,8.0,81,0.00,,,0.00,Wunderground v.1.15,2013-04-06 04:50:00,
2013-04-06 00:52:00,64.0,58.1,29.99,NNE,16,9.0,9.0,81,0.00,,,0.00,Wunderground v.1.15,2013-04-06 04:52:00,
2013-04-06 00:55:00,64.0,58.1,29.99,NNE,14,6.0,11.0,81,0.00,,,0.00,Wunderground v.1.15,2013-04-06 04:55:00,
2013-04-06 00:56:00,64.0,58.1,29.99,NW,321,10.0,11.0,81,0.00,,,0.00,Wunderground v.1.15,2013-04-06 04:56:00,
2013-04-06 00:57:00,64.0,58.1,29.99,North,10,12.0,12.0,81,0.00,,,0.00,Wunderground v.1.15,2013-04-06 04:57:00,
2013-04-06 01:01:00,63.9,58.0,29.99,North,356,5.0,8.0,81,0.00,,,0.00,Wunderground v.1.15,2013-04-06 05:01:00,
2013-04-06 01:03:00,63.9,58.0,29.99,NW,311,6.0,8.0,81,0.00,,,0.00,Wunderground v.1.15,2013-04-06 05:03:00,
2013-04-06 01:09:00,63.8,57.5,29.99,North,357,5.0,9.0,80,0.00,,,0.00,Wunderground v.1.15,2013-04-06 05:09:00,
2013-04-06 01:10:00,63.8,57.5,29.99,NW,312,5.0,6.0,80,0.00,,,0.00,Wunderground v.1.15,2013-04-06 05:10:00,
2013-04-06 01:14:00,63.8,57.5,29.99,NNW,334,5.0,8.0,80,0.00,,,0.00,Wunderground v.1.15,2013-04-06 05:14:00,
2013-04-06 01:16:00,63.7,57.1,29.99,NW,319,6.0,8.0,79,0.00,,,0.00,Wunderground v.1.15,2013-04-06 05:16:00,
2013-04-06 01:18:00,63.7,57.1,29.99,NNW,337,8.0,8.0,79,0.00,,,0.00,Wunderground v.1.15,2013-04-06 05:18:00,
2013-04-06 01:22:00,63.7,57.1,29.99,North,354,4.0,6.0,79,0.00,,,0.00,Wunderground v.1.15,2013-04-06 05:22:00,
2013-04-06 01:23:00,63.7,57.1,29.99,NNW,345,9.0,9.0,79,0.00,,,0.00,Wunderground v.1.15,2013-04-06 05:23:00,
2013-04-06 01:25:00,63.7,57.1,29.99,WNW,298,2.0,9.0,79,0.00,,,0.00,Wunderground v.1.15,2013-04-06 05:25:00,
2013-04-06 01:26:00,63.7,57.1,29.99,NNW,330,7.0,9.0,79,0.00,,,0.00,Wunderground v.1.15,2013-04-06 05:26:00,
2013-04-06 01:27:00,63.7,57.1,29.99,NNW,339,6.0,9.0,79,0.00,,,0.00,Wunderground v.1.15,2013-04-06 05:27:00,
2013-04-06 01:29:00,63.7,57.1,29.99,WNW,295,2.0,6.0,79,0.00,,,0.00,Wunderground v.1.15,2013-04-06 05:29:00,
2013-04-06 01:31:00,63.6,57.0,29.99,NW,307,5.0,6.0,79,0.00,,,0.00,Wunderground v.1.15,2013-04-06 05:31:00,
2013-04-06 01:34:00,63.6,57.0,29.99,NNW,347,6.0,8.0,79,0.00,,,0.00,Wunderground v.1.15,2013-04-06 05:34:00,
2013-04-06 01:35:00,63.6,57.0,29.99,NNW,335,6.0,8.0,79,0.00,,,0.00,Wunderground v.1.15,2013-04-06 05:35:00,
2013-04-06 01:37:00,63.5,57.2,29.99,NNW,331,6.0,8.0,80,0.00,,,0.00,Wunderground v.1.15,2013-04-06 05:37:00,
2013-04-06 01:40:00,63.5,57.2,29.99,North,6,10.0,10.0,80,0.00,,,0.00,Wunderground v.1.15,2013-04-06 05:40:00,
2013-04-06 01:41:00,63.5,57.2,29.99,North,1,8.0,10.0,80,0.00,,,0.00,Wunderground v.1.15,2013-04-06 05:41:00,
2013-04-06 01:43:00,63.4,57.5,29.99,NW,320,6.0,10.0,81,0.00,,,0.00,Wunderground v.1.15,2013-04-06 05:43:00,
2013-04-06 01:44:00,63.4,57.5,29.99,NNE,19,8.0,10.0,81,0.00,,,0.00,Wunderground v.1.15,2013-04-06 05:44:00,
2013-04-06 01:45:00,63.3,57.4,29.99,North,358,8.0,10.0,81,0.00,,,0.00,Wunderground v.1.15,2013-04-06 05:45:00,
2013-04-06 01:49:00,63.2,57.6,29.99,NNW,327,4.0,11.0,82,0.00,,,0.00,Wunderground v.1.15,2013-04-06 05:49:00,
2013-04-06 01:50:00,63.1,57.5,29.99,NW,315,6.0,7.0,82,0.00,,,0.00,Wunderground v.1.15,2013-04-06 05:50:00,
2013-04-06 01:51:00,63.1,57.5,29.99,North,350,12.0,12.0,82,0.00,,,0.00,Wunderground v.1.15,2013-04-06 05:51:00,
2013-04-06 01:55:00,63.0,57.4,30.00,NNW,346,7.0,12.0,82,0.00,,,0.00,Wunderground v.1.15,2013-04-06 05:55:00,
2013-04-06 01:57:00,62.9,57.3,30.00,NNW,338,6.0,12.0,82,0.00,,,0.00,Wunderground v.1.15,2013-04-06 05:57:00,
2013-04-06 02:01:00,62.7,57.1,30.00,NNE,27,5.0,7.0,82,0.00,,,0.00,Wunderground v.1.15,2013-04-06 06:01:00,
2013-04-06 02:02:00,62.7,57.1,30.00,WNW,301,5.0,7.0,82,0.00,,,0.00,Wunderground v.1.15,2013-04-06 06:02:00,
2013-04-06 02:06:00,62.6,57.0,30.00,NNW,335,6.0,12.0,82,0.00,,,0.00,Wunderground v.1.15,2013-04-06 06:06:00,
2013-04-06 02:07:00,62.6,57.0,30.00,NNW,330,2.0,12.0,82,0.00,,,0.00,Wunderground v.1.15,2013-04-06 06:07:00,
2013-04-06 02:11:00,62.5,56.9,30.00,NW,319,6.0,9.0,82,0.00,,,0.00,Wunderground v.1.15,2013-04-06 06:11:00,
2013-04-06 02:12:00,62.5,56.9,30.00,North,349,6.0,9.0,82,0.00,,,0.00,Wunderground v.1.15,2013-04-06 06:12:00,
2013-04-06 02:13:00,62.4,56.8,29.99,NNW,331,5.0,13.0,82,0.00,,,0.00,Wunderground v.1.15,2013-04-06 06:13:00,
2013-04-06 02:17:00,62.4,56.8,30.00,NE,39,5.0,13.0,82,0.00,,,0.00,Wunderground v.1.15,2013-04-06 06:17:00,
2013-04-06 02:18:00,62.3,56.7,29.99,North,4,6.0,13.0,82,0.00,,,0.00,Wunderground v.1.15,2013-04-06 06:18:00,
2013-04-06 02:22:00,62.3,56.7,30.00,NW,309,3.0,11.0,82,0.00,,,0.00,Wunderground v.1.15,2013-04-06 06:22:00,
2013-04-06 02:23:00,62.3,56.7,29.99,NW,312,5.0,11.0,82,0.00,,,0.00,Wunderground v.1.15,2013-04-06 06:23:00,
2013-04-06 02:24:00,62.3,56.7,29.99,North,8,5.0,11.0,82,0.00,,,0.00,Wunderground v.1.15,2013-04-06 06:24:00,
2013-04-06 02:27:00,62.3,56.7,30.00,NE,40,4.0,11.0,82,0.00,,,0.00,Wunderground v.1.15,2013-04-06 06:27:00,
2013-04-06 02:28:00,62.2,56.6,30.00,NNE,16,1.0,11.0,82,0.00,,,0.00,Wunderground v.1.15,2013-04-06 06:28:00,
2013-04-06 02:29:00,62.2,56.6,29.99,ENE,65,2.0,11.0,82,0.00,,,0.00,Wunderground v.1.15,2013-04-06 06:29:00,
2013-04-06 02:32:00,62.2,56.6,29.99,North,352,7.0,7.0,82,0.00,,,0.00,Wunderground v.1.15,2013-04-06 06:32:00,
2013-04-06 02:35:00,62.2,56.6,29.99,North,354,7.0,9.0,82,0.00,,,0.00,Wunderground v.1.15,2013-04-06 06:35:00,
2013-04-06 02:37:00,62.2,56.6,29.99,North,9,4.0,10.0,82,0.00,,,0.00,Wunderground v.1.15,2013-04-06 06:37:00,
2013-04-06 02:40:00,62.1,56.9,29.99,North,354,6.0,7.0,83,0.00,,,0.00,Wunderground v.1.15,2013-04-06 06:40:00,
2013-04-06 02:42:00,62.1,56.9,29.99,NE,41,4.0,7.0,83,0.00,,,0.00,Wunderground v.1.15,2013-04-06 06:42:00,
2013-04-06 02:45:00,62.1,56.5,29.99,NNW,336,7.0,9.0,82,0.00,,,0.00,Wunderground v.1.15,2013-04-06 06:45:00,
2013-04-06 02:46:00,62.1,56.5,29.99,NNW,342,7.0,9.0,82,0.00,,,0.00,Wunderground v.1.15,2013-04-06 06:46:00,
2013-04-06 02:47:00,62.1,56.5,29.99,North,358,7.0,9.0,82,0.00,,,0.00,Wunderground v.1.15,2013-04-06 06:47:00,
2013-04-06 02:50:00,62.0,56.4,29.99,ENE,65,5.0,7.0,82,0.00,,,0.00,Wunderground v.1.15,2013-04-06 06:50:00,
2013-04-06 02:51:00,62.0,56.4,29.99,NNE,13,11.0,11.0,82,0.00,,,0.00,Wunderground v.1.15,2013-04-06 06:51:00,
2013-04-06 02:52:00,62.0,56.4,29.99,NNE,13,6.0,11.0,82,0.00,,,0.00,Wunderground v.1.15,2013-04-06 06:52:00,
2013-04-06 02:55:00,62.0,56.4,29.99,NNE,23,6.0,11.0,82,0.00,,,0.00,Wunderground v.1.15,2013-04-06 06:55:00,
2013-04-06 02:57:00,61.9,56.3,29.99,NNW,345,3.0,11.0,82,0.00,,,0.00,Wunderground v.1.15,2013-04-06 06:57:00,
2013-04-06 02:58:00,61.9,56.3,29.99,North,349,4.0,11.0,82,0.00,,,0.00,Wunderground v.1.15,2013-04-06 06:58:00,
2013-04-06 03:01:00,61.9,56.3,29.98,ENE,63,5.0,6.0,82,0.00,,,0.00,Wunderground v.1.15,2013-04-06 07:01:00,
2013-04-06 03:02:00,61.9,56.3,29.98,NE,55,3.0,7.0,82,0.00,,,0.00,Wunderground v.1.15,2013-04-06 07:02:00,
2013-04-06 03:03:00,61.9,56.3,29.98,North,360,2.0,7.0,82,0.00,,,0.00,Wunderground v.1.15,2013-04-06 07:03:00,
2013-04-06 03:06:00,61.8,56.6,29.98,NE,37,6.0,8.0,83,0.00,,,0.00,Wunderground v.1.15,2013-04-06 07:06:00,
2013-04-06 03:08:00,61.8,56.6,29.98,NNE,33,6.0,8.0,83,0.00,,,0.00,Wunderground v.1.15,2013-04-06 07:08:00,
2013-04-06 03:09:00,61.8,56.6,29.98,NNE,15,3.0,8.0,83,0.00,,,0.00,Wunderground v.1.15,2013-04-06 07:09:00,
2013-04-06 03:11:00,61.8,56.6,29.99,NE,37,4.0,4.0,83,0.00,,,0.00,Wunderground v.1.15,2013-04-06 07:11:00,
2013-04-06 03:13:00,61.7,56.5,29.99,NNE,22,2.0,8.0,83,0.00,,,0.00,Wunderground v.1.15,2013-04-06 07:13:00,
2013-04-06 03:14:00,61.7,56.5,29.99,NW,323,4.0,8.0,83,0.00,,,0.00,Wunderground v.1.15,2013-04-06 07:14:00,
2013-04-06 03:16:00,61.7,56.5,29.99,NNE,16,6.0,8.0,83,0.00,,,0.00,Wunderground v.1.15,2013-04-06 07:16:00,
2013-04-06 03:18:00,61.7,56.5,29.99,NE,50,4.0,10.0,83,0.00,,,0.00,Wunderground v.1.15,2013-04-06 07:18:00,
2013-04-06 03:19:00,61.6,56.4,29.99,NNE,18,7.0,11.0,83,0.00,,,0.00,Wunderground v.1.15,2013-04-06 07:19:00,
2013-04-06 03:20:00,61.6,56.4,29.99,NNE,14,4.0,5.0,83,0.00,,,0.00,Wunderground v.1.15,2013-04-06 07:20:00,
2013-04-06 03:22:00,61.6,56.4,29.99,North,360,6.0,6.0,83,0.00,,,0.00,Wunderground v.1.15,2013-04-06 07:22:00,
2013-04-06 03:23:00,61.6,56.4,29.99,NNW,335,4.0,6.0,83,0.00,,,0.00,Wunderground v.1.15,2013-04-06 07:23:00,
2013-04-06 03:25:00,61.5,56.3,29.99,NE,55,5.0,8.0,83,0.00,,,0.00,Wunderground v.1.15,2013-04-06 07:25:00,
2013-04-06 03:27:00,61.5,56.3,29.99,NNE,29,4.0,8.0,83,0.00,,,0.00,Wunderground v.1.15,2013-04-06 07:27:00,
2013-04-06 03:30:00,61.5,56.3,29.99,NNW,342,8.0,8.0,83,0.00,,,0.00,Wunderground v.1.15,2013-04-06 07:30:00,
2013-04-06 03:31:00,61.4,56.2,29.99,WNW,295,6.0,11.0,83,0.00,,,0.00,Wunderground v.1.15,2013-04-06 07:31:00,
2013-04-06 03:32:00,61.4,56.2,29.99,NNE,20,7.0,11.0,83,0.00,,,0.00,Wunderground v.1.15,2013-04-06 07:32:00,
2013-04-06 03:36:00,61.4,56.2,29.99,North,5,10.0,11.0,83,0.00,,,0.00,Wunderground v.1.15,2013-04-06 07:36:00,
2013-04-06 03:37:00,61.3,56.1,29.99,NNW,330,3.0,11.0,83,0.00,,,0.00,Wunderground v.1.15,2013-04-06 07:37:00,
2013-04-06 03:38:00,61.3,56.1,29.99,NE,35,7.0,11.0,83,0.00,,,0.00,Wunderground v.1.15,2013-04-06 07:38:00,
2013-04-06 03:41:00,61.1,56.2,29.99,NNE,12,6.0,9.0,84,0.00,,,0.00,Wunderground v.1.15,2013-04-06 07:41:00,
2013-04-06 03:42:00,61.1,56.2,29.99,NNW,329,6.0,9.0,84,0.00,,,0.00,Wunderground v.1.15,2013-04-06 07:42:00,
2013-04-06 03:44:00,61.0,56.5,29.99,NW,321,4.0,10.0,85,0.00,,,0.00,Wunderground v.1.15,2013-04-06 07:44:00,
2013-04-06 03:47:00,60.8,56.3,29.99,NNE,12,11.0,11.0,85,0.00,,,0.00,Wunderground v.1.15,2013-04-06 07:47:00,
2013-04-06 03:49:00,60.7,56.2,29.99,North,359,13.0,14.0,85,0.00,,,0.00,Wunderground v.1.15,2013-04-06 07:49:00,
2013-04-06 03:52:00,60.4,55.9,30.00,North,5,8.0,16.0,85,0.00,,,0.00,Wunderground v.1.15,2013-04-06 07:52:00,
2013-04-06 03:53:00,60.3,56.1,30.00,NNE,29,6.0,16.0,86,0.00,,,0.00,Wunderground v.1.15,2013-04-06 07:53:00,
2013-04-06 03:54:00,60.2,56.0,30.00,NNE,13,10.0,16.0,86,0.00,,,0.00,Wunderground v.1.15,2013-04-06 07:54:00,
2013-04-06 03:57:00,60.0,55.8,30.00,North,360,10.0,16.0,86,0.00,,,0.00,Wunderground v.1.15,2013-04-06 07:57:00,
2013-04-06 03:58:00,59.9,55.7,30.00,NNE,33,9.0,16.0,86,0.00,,,0.00,Wunderground v.1.15,2013-04-06 07:58:00,
2013-04-06 03:59:00,59.9,55.7,30.00,North,349,6.0,9.0,86,0.00,,,0.00,Wunderground v.1.15,2013-04-06 07:59:00,
2013-04-06 04:02:00,59.7,55.8,30.00,NE,39,9.0,12.0,87,0.00,,,0.00,Wunderground v.1.15,2013-04-06 08:02:00,
2013-04-06 04:03:00,59.6,55.4,30.00,NNE,15,11.0,12.0,86,0.00,,,0.00,Wunderground v.1.15,2013-04-06 08:03:00,
2013-04-06 04:05:00,59.5,55.3,30.00,North,353,7.0,13.0,86,0.00,,,0.00,Wunderground v.1.15,2013-04-06 08:05:00,
2013-04-06 04:07:00,59.3,55.4,30.00,NNE,16,16.0,16.0,87,0.00,,,0.00,Wunderground v.1.15,2013-04-06 08:07:00,
2013-04-06 04:09:00,59.2,55.3,30.00,NNW,338,8.0,19.0,87,0.00,,,0.00,Wunderground v.1.15,2013-04-06 08:09:00,
2013-04-06 04:10:00,59.1,55.2,30.00,North,9,14.0,14.0,87,0.00,,,0.00,Wunderground v.1.15,2013-04-06 08:10:00,
2013-04-06 04:12:00,58.9,55.0,30.00,NNE,20,10.0,14.0,87,0.00,,,0.00,Wunderground v.1.15,2013-04-06 08:12:00,
2013-04-06 04:14:00,58.8,54.9,30.00,NNE,20,4.0,14.0,87,0.00,,,0.00,Wunderground v.1.15,2013-04-06 08:14:00,
2013-04-06 04:15:00,58.7,54.8,29.99,NNE,25,5.0,14.0,87,0.00,,,0.00,Wunderground v.1.15,2013-04-06 08:15:00,
2013-04-06 04:18:00,58.6,54.7,29.99,North,6,12.0,14.0,87,0.00,,,0.00,Wunderground v.1.15,2013-04-06 08:18:00,
2013-04-06 04:19:00,58.5,55.0,29.99,North,1,10.0,14.0,88,0.00,,,0.00,Wunderground v.1.15,2013-04-06 08:19:00,
2013-04-06 04:20:00,58.4,54.9,29.99,NE,49,6.0,13.0,88,0.00,,,0.00,Wunderground v.1.15,2013-04-06 08:20:00,
2013-04-06 04:23:00,58.3,54.8,29.99,North,10,4.0,13.0,88,0.00,,,0.00,Wunderground v.1.15,2013-04-06 08:23:00,
2013-04-06 04:24:00,58.2,54.7,29.99,NNE,12,6.0,13.0,88,0.00,,,0.00,Wunderground v.1.15,2013-04-06 08:24:00,
2013-04-06 04:25:00,58.2,54.7,30.00,North,11,11.0,13.0,88,0.00,,,0.00,Wunderground v.1.15,2013-04-06 08:25:00,
2013-04-06 04:28:00,58.2,54.7,30.00,NNE,23,5.0,13.0,88,0.00,,,0.00,Wunderground v.1.15,2013-04-06 08:28:00,
2013-04-06 04:29:00,58.2,54.7,30.00,NNW,330,5.0,13.0,88,0.00,,,0.00,Wunderground v.1.15,2013-04-06 08:29:00,
2013-04-06 04:30:00,58.2,54.7,30.00,NNW,331,4.0,9.0,88,0.00,,,0.00,Wunderground v.1.15,2013-04-06 08:30:00,
2013-04-06 04:33:00,58.2,54.7,30.01,NNW,345,4.0,10.0,88,0.00,,,0.00,Wunderground v.1.15,2013-04-06 08:33:00,
2013-04-06 04:34:00,58.2,54.7,30.01,NNE,16,4.0,10.0,88,0.00,,,0.00,Wunderground v.1.15,2013-04-06 08:34:00,
2013-04-06 04:35:00,58.2,54.7,30.01,NNW,342,3.0,10.0,88,0.00,,,0.00,Wunderground v.1.15,2013-04-06 08:35:00,
2013-04-06 04:39:00,58.3,54.8,30.01,NNE,20,5.0,5.0,88,0.00,,,0.00,Wunderground v.1.15,2013-04-06 08:39:00,
2013-04-06 04:40:00,58.3,54.8,30.01,NNW,335,5.0,5.0,88,0.00,,,0.00,Wunderground v.1.15,2013-04-06 08:40:00,
2013-04-06 04:45:00,58.3,54.4,30.01,NNW,330,6.0,7.0,87,0.00,,,0.00,Wunderground v.1.15,2013-04-06 08:45:00,
2013-04-06 04:46:00,58.3,54.4,30.01,North,349,4.0,10.0,87,0.00,,,0.00,Wunderground v.1.15,2013-04-06 08:46:00,
2013-04-06 04:50:00,58.4,54.5,30.02,NNW,330,4.0,5.0,87,0.00,,,0.00,Wunderground v.1.15,2013-04-06 08:50:00,
2013-04-06 04:52:00,58.4,54.5,30.02,North,6,7.0,11.0,87,0.00,,,0.00,Wunderground v.1.15,2013-04-06 08:52:00,
2013-04-06 04:55:00,58.4,54.5,30.01,NE,37,5.0,11.0,87,0.00,,,0.00,Wunderground v.1.15,2013-04-06 08:55:00,
2013-04-06 04:57:00,58.4,54.5,30.01,NNE,16,7.0,11.0,87,0.00,,,0.00,Wunderground v.1.15,2013-04-06 08:57:00,
2013-04-06 05:00:00,58.5,54.6,30.01,North,7,9.0,9.0,87,0.00,,,0.00,Wunderground v.1.15,2013-04-06 09:00:00,
2013-04-06 05:01:00,58.5,54.6,30.01,NNE,26,5.0,9.0,87,0.00,,,0.00,Wunderground v.1.15,2013-04-06 09:01:00,
2013-04-06 05:02:00,58.5,54.6,30.01,NNE,25,7.0,9.0,87,0.00,,,0.00,Wunderground v.1.15,2013-04-06 09:02:00,
2013-04-06 05:05:00,58.5,54.6,30.01,North,359,4.0,9.0,87,0.00,,,0.00,Wunderground v.1.15,2013-04-06 09:05:00,
2013-04-06 05:06:00,58.5,54.6,30.01,NNE,14,5.0,9.0,87,0.00,,,0.00,Wunderground v.1.15,2013-04-06 09:06:00,
2013-04-06 05:07:00,58.5,54.6,30.01,NNE,14,3.0,9.0,87,0.00,,,0.00,Wunderground v.1.15,2013-04-06 09:07:00,
2013-04-06 05:11:00,58.6,54.7,30.01,NNE,13,8.0,9.0,87,0.00,,,0.00,Wunderground v.1.15,2013-04-06 09:11:00,
2013-04-06 05:12:00,58.5,54.6,30.01,North,354,10.0,11.0,87,0.00,,,0.00,Wunderground v.1.15,2013-04-06 09:12:00,
2013-04-06 05:16:00,58.5,54.6,30.01,NNE,22,4.0,11.0,87,0.00,,,0.00,Wunderground v.1.15,2013-04-06 09:16:00,
2013-04-06 05:17:00,58.6,54.7,30.01,ENE,60,5.0,11.0,87,0.00,,,0.00,Wunderground v.1.15,2013-04-06 09:17:00,
2013-04-06 05:22:00,58.5,54.6,30.01,NNE,25,6.0,9.0,87,0.00,,,0.00,Wunderground v.1.15,2013-04-06 09:22:00,
2013-04-06 05:23:00,58.5,54.6,30.01,North,6,8.0,9.0,87,0.00,,,0.00,Wunderground v.1.15,2013-04-06 09:23:00,
2013-04-06 05:27:00,58.5,54.6,30.01,NE,41,8.0,9.0,87,0.00,,,0.00,Wunderground v.1.15,2013-04-06 09:27:00,
2013-04-06 05:30:00,58.5,54.6,30.01,NNE,23,3.0,5.0,87,0.00,,,0.00,Wunderground v.1.15,2013-04-06 09:30:00,
2013-04-06 05:32:00,58.5,54.3,30.01,NNE,31,6.0,9.0,86,0.00,,,0.00,Wunderground v.1.15,2013-04-06 09:32:00,
2013-04-06 05:35:00,58.5,54.3,30.01,NNE,30,5.0,9.0,86,0.00,,,0.00,Wunderground v.1.15,2013-04-06 09:35:00,
2013-04-06 05:37:00,58.5,54.3,30.01,NNW,347,5.0,9.0,86,0.00,,,0.00,Wunderground v.1.15,2013-04-06 09:37:00,
2013-04-06 05:38:00,58.5,54.3,30.01,NNE,23,5.0,9.0,86,0.00,,,0.00,Wunderground v.1.15,2013-04-06 09:38:00,
2013-04-06 05:40:00,58.5,54.3,30.01,NNE,21,6.0,6.0,86,0.00,,,0.00,Wunderground v.1.15,2013-04-06 09:40:00,
2013-04-06 05:42:00,58.5,54.3,30.01,ENE,60,2.0,10.0,86,0.00,,,0.00,Wunderground v.1.15,2013-04-06 09:42:00,
2013-04-06 05:43:00,58.5,54.3,30.01,NNW,330,3.0,10.0,86,0.00,,,0.00,Wunderground v.1.15,2013-04-06 09:43:00,
2013-04-06 05:45:00,58.5,54.3,30.01,NNE,13,5.0,10.0,86,0.00,,,0.00,Wunderground v.1.15,2013-04-06 09:45:00,
2013-04-06 05:47:00,58.5,54.3,30.01,NNW,342,5.0,10.0,86,0.00,,,0.00,Wunderground v.1.15,2013-04-06 09:47:00,
2013-04-06 05:48:00,58.6,54.4,30.02,North,353,5.0,10.0,86,0.00,,,0.00,Wunderground v.1.15,2013-04-06 09:48:00,
2013-04-06 05:51:00,58.6,54.4,30.02,NE,51,3.0,5.0,86,0.00,,,0.00,Wunderground v.1.15,2013-04-06 09:51:00,
2013-04-06 05:53:00,58.5,54.3,30.02,NW,326,4.0,8.0,86,0.00,,,0.00,Wunderground v.1.15,2013-04-06 09:53:00,
2013-04-06 05:55:00,58.6,54.4,30.02,NNW,335,1.0,8.0,86,0.00,,,0.00,Wunderground v.1.15,2013-04-06 09:55:00,
2013-04-06 05:56:00,58.5,54.3,30.02,North,353,2.0,8.0,86,0.00,,,0.00,Wunderground v.1.15,2013-04-06 09:56:00,
2013-04-06 05:59:00,58.6,54.4,30.02,North,356,8.0,8.0,86,0.00,,,0.00,Wunderground v.1.15,2013-04-06 09:59:00,
2013-04-06 06:01:00,58.6,54.4,30.02,NW,319,2.0,4.0,86,0.00,,,0.00,Wunderground v.1.15,2013-04-06 10:01:00,
2013-04-06 06:05:00,58.5,54.0,30.02,North,352,8.0,10.0,85,0.00,,,0.00,Wunderground v.1.15,2013-04-06 10:05:00,
2013-04-06 06:06:00,58.5,54.3,30.02,NNE,23,4.0,10.0,86,0.00,,,0.00,Wunderground v.1.15,2013-04-06 10:06:00,
2013-04-06 06:07:00,58.5,54.3,30.02,NNE,25,4.0,10.0,86,0.00,,,0.00,Wunderground v.1.15,2013-04-06 10:07:00,
2013-04-06 06:10:00,58.5,54.3,30.02,NNW,332,2.0,5.0,86,0.00,,,0.00,Wunderground v.1.15,2013-04-06 10:10:00,
2013-04-06 06:12:00,58.5,54.3,30.02,NNW,347,7.0,7.0,86,0.00,,,0.00,Wunderground v.1.15,2013-04-06 10:12:00,
2013-04-06 06:17:00,58.5,54.0,30.03,NW,304,6.0,11.0,85,0.00,,,0.00,Wunderground v.1.15,2013-04-06 10:17:00,
2013-04-06 06:22:00,58.5,54.3,30.04,North,7,4.0,8.0,86,0.00,,,0.00,Wunderground v.1.15,2013-04-06 10:22:00,
2013-04-06 06:27:00,58.5,54.0,30.04,NNW,340,7.0,8.0,85,0.00,,,0.00,Wunderground v.1.15,2013-04-06 10:27:00,
2013-04-06 06:32:00,58.5,54.0,30.04,NE,37,2.0,7.0,85,0.00,,,0.00,Wunderground v.1.15,2013-04-06 10:32:00,
2013-04-06 06:37:00,58.5,54.0,30.04,NNE,15,1.0,7.0,85,0.00,,,0.00,Wunderground v.1.15,2013-04-06 10:37:00,
2013-04-06 06:38:00,58.5,54.3,30.04,NNE,18,2.0,7.0,86,0.00,,,0.00,Wunderground v.1.15,2013-04-06 10:38:00,
2013-04-06 06:42:00,58.5,54.3,30.04,NNE,15,3.0,6.0,86,0.00,,,0.00,Wunderground v.1.15,2013-04-06 10:42:00,
2013-04-06 06:43:00,58.5,54.3,30.04,NNW,347,6.0,6.0,86,0.00,,,0.00,Wunderground v.1.15,2013-04-06 10:43:00,
2013-04-06 06:45:00,58.5,54.3,30.04,NNE,27,2.0,6.0,86,0.00,,,0.00,Wunderground v.1.15,2013-04-06 10:45:00,
2013-04-06 06:47:00,58.5,54.3,30.04,NE,35,2.0,6.0,86,0.00,,,0.00,Wunderground v.1.15,2013-04-06 10:47:00,
2013-04-06 06:48:00,58.5,54.3,30.04,NNE,15,4.0,6.0,86,0.00,,,0.00,Wunderground v.1.15,2013-04-06 10:48:00,
2013-04-06 06:51:00,58.5,54.3,30.04,North,6,3.0,4.0,86,0.00,,,0.00,Wunderground v.1.15,2013-04-06 10:51:00,
2013-04-06 06:52:00,58.5,54.3,30.04,NNW,334,3.0,4.0,86,0.00,,,0.00,Wunderground v.1.15,2013-04-06 10:52:00,
2013-04-06 06:53:00,58.5,54.3,30.04,North,3,5.0,6.0,86,0.00,,,0.00,Wunderground v.1.15,2013-04-06 10:53:00,
2013-04-06 06:56:00,58.5,54.3,30.04,ENE,71,3.0,6.0,86,0.00,,,0.00,Wunderground v.1.15,2013-04-06 10:56:00,
2013-04-06 06:57:00,58.5,54.3,30.04,NNE,13,5.0,8.0,86,0.00,,,0.00,Wunderground v.1.15,2013-04-06 10:57:00,
2013-04-06 06:58:00,58.5,54.3,30.04,NNE,31,3.0,8.0,86,0.00,,,0.00,Wunderground v.1.15,2013-04-06 10:58:00,
2013-04-06 07:02:00,58.5,54.3,30.04,NNE,32,0.0,4.0,86,0.00,,,0.00,Wunderground v.1.15,2013-04-06 11:02:00,
2013-04-06 07:03:00,58.5,54.3,30.04,NNE,16,6.0,6.0,86,0.00,,,0.00,Wunderground v.1.15,2013-04-06 11:03:00,
2013-04-06 07:07:00,58.4,54.2,30.04,North,6,2.0,6.0,86,0.00,,,0.00,Wunderground v.1.15,2013-04-06 11:07:00,
2013-04-06 07:08:00,58.5,54.3,30.04,NNE,15,4.0,6.0,86,0.00,,,0.00,Wunderground v.1.15,2013-04-06 11:08:00,
2013-04-06 07:09:00,58.4,54.2,30.04,NNE,15,4.0,6.0,86,0.00,,,0.00,Wunderground v.1.15,2013-04-06 11:09:00,
2013-04-06 07:12:00,58.4,54.2,30.05,North,6,5.0,8.0,86,0.00,,,0.00,Wunderground v.1.15,2013-04-06 11:12:00,
2013-04-06 07:13:00,58.3,54.1,30.05,North,355,4.0,8.0,86,0.00,,,0.00,Wunderground v.1.15,2013-04-06 11:13:00,
2013-04-06 07:15:00,58.4,54.2,30.05,NNE,19,3.0,8.0,86,0.00,,,0.00,Wunderground v.1.15,2013-04-06 11:15:00,
2013-04-06 07:17:00,58.4,54.2,30.05,NNE,25,4.0,8.0,86,0.00,,,0.00,Wunderground v.1.15,2013-04-06 11:17:00,
2013-04-06 07:18:00,58.3,54.1,30.05,NNE,13,3.0,8.0,86,0.00,,,0.00,Wunderground v.1.15,2013-04-06 11:18:00,
2013-04-06 07:20:00,58.3,54.1,30.05,North,349,4.0,5.0,86,0.00,,,0.00,Wunderground v.1.15,2013-04-06 11:20:00,
2013-04-06 07:22:00,58.4,54.2,30.05,NW,322,3.0,5.0,86,0.00,,,0.00,Wunderground v.1.15,2013-04-06 11:22:00,
2013-04-06 07:24:00,58.3,54.1,30.05,NNE,25,4.0,5.0,86,0.00,,,0.00,Wunderground v.1.15,2013-04-06 11:24:00,
2013-04-06 07:25:00,58.4,54.2,30.06,NNW,337,2.0,5.0,86,0.00,,,0.00,Wunderground v.1.15,2013-04-06 11:25:00,
2013-04-06 07:29:00,58.4,54.2,30.06,NNE,15,6.0,7.0,86,0.00,,,0.00,Wunderground v.1.15,2013-04-06 11:29:00,
2013-04-06 07:31:00,58.4,54.2,30.06,North,349,7.0,7.0,86,0.00,,,0.00,Wunderground v.1.15,2013-04-06 11:31:00,
2013-04-06 07:34:00,58.4,54.2,30.06,NW,311,5.0,7.0,86,0.00,,,0.00,Wunderground v.1.15,2013-04-06 11:34:00,
2013-04-06 07:36:00,58.4,54.2,30.06,NNE,16,2.0,8.0,86,0.00,,,0.00,Wunderground v.1.15,2013-04-06 11:36:00,
2013-04-06 07:39:00,58.4,54.2,30.06,NNE,14,2.0,8.0,86,0.00,,,0.00,Wunderground v.1.15,2013-04-06 11:39:00,
2013-04-06 07:42:00,58.4,54.2,30.06,NNE,31,2.0,6.0,86,0.00,,,0.00,Wunderground v.1.15,2013-04-06 11:42:00,
2013-04-06 07:44:00,58.5,54.3,30.06,NNW,340,1.0,6.0,86,0.00,,,0.00,Wunderground v.1.15,2013-04-06 11:44:00,
2013-04-06 07:47:00,58.5,54.3,30.06,North,355,2.0,6.0,86,0.00,,,0.00,Wunderground v.1.15,2013-04-06 11:47:00,
2013-04-06 07:49:00,58.6,54.4,30.06,NW,321,2.0,3.0,86,0.00,,,0.00,Wunderground v.1.15,2013-04-06 11:49:00,
2013-04-06 07:52:00,58.6,54.4,30.06,NNE,16,2.0,4.0,86,0.00,,,0.00,Wunderground v.1.15,2013-04-06 11:52:00,
2013-04-06 07:55:00,58.6,54.4,30.06,North,5,3.0,4.0,86,0.00,,,0.00,Wunderground v.1.15,2013-04-06 11:55:00,
2013-04-06 07:57:00,58.7,54.5,30.06,NNW,344,5.0,6.0,86,0.00,,,0.00,Wunderground v.1.15,2013-04-06 11:57:00,
2013-04-06 08:00:00,58.7,54.5,30.07,NW,325,1.0,3.0,86,0.00,,,0.00,Wunderground v.1.15,2013-04-06 12:00:00,
2013-04-06 08:02:00,58.7,54.5,30.07,NNW,337,3.0,7.0,86,0.00,,,0.00,Wunderground v.1.15,2013-04-06 12:02:00,
2013-04-06 08:05:00,58.7,54.5,30.07,North,358,2.0,7.0,86,0.00,,,0.00,Wunderground v.1.15,2013-04-06 12:05:00,
2013-04-06 08:07:00,58.7,54.5,30.07,NNE,16,8.0,8.0,86,0.00,,,0.00,Wunderground v.1.15,2013-04-06 12:07:00,
2013-04-06 08:11:00,58.7,54.2,30.07,NE,51,7.0,7.0,85,0.00,,,0.00,Wunderground v.1.15,2013-04-06 12:11:00,
2013-04-06 08:12:00,58.8,54.3,30.07,NE,46,4.0,8.0,85,0.00,,,0.00,Wunderground v.1.15,2013-04-06 12:12:00,
2013-04-06 08:16:00,58.8,54.3,30.07,North,5,5.0,8.0,85,0.00,,,0.00,Wunderground v.1.15,2013-04-06 12:16:00,
2013-04-06 08:17:00,58.8,54.3,30.07,North,358,2.0,8.0,85,0.00,,,0.00,Wunderground v.1.15,2013-04-06 12:17:00,
2013-04-06 08:18:00,58.9,54.4,30.07,North,10,5.0,8.0,85,0.00,,,0.00,Wunderground v.1.15,2013-04-06 12:18:00,
2013-04-06 08:21:00,58.9,54.4,30.07,NW,314,2.0,9.0,85,0.00,,,0.00,Wunderground v.1.15,2013-04-06 12:21:00,
2013-04-06 08:22:00,58.9,54.4,30.07,NE,43,5.0,9.0,85,0.00,,,0.00,Wunderground v.1.15,2013-04-06 12:22:00,
2013-04-06 08:23:00,59.0,54.5,30.07,NNE,29,5.0,9.0,85,0.00,,,0.00,Wunderground v.1.15,2013-04-06 12:23:00,
2013-04-06 08:26:00,59.1,54.6,30.07,NE,43,4.0,9.0,85,0.00,,,0.00,Wunderground v.1.15,2013-04-06 12:26:00,
2013-04-06 08:27:00,59.1,54.6,30.07,NE,49,3.0,9.0,85,0.00,,,0.00,Wunderground v.1.15,2013-04-06 12:27:00,
2013-04-06 08:28:00,59.1,54.6,30.07,NNE,13,8.0,9.0,85,0.00,,,0.00,Wunderground v.1.15,2013-04-06 12:28:00,
2013-04-06 08:29:00,59.1,54.3,30.07,NNE,13,6.0,9.0,84,0.00,,,0.00,Wunderground v.1.15,2013-04-06 12:29:00,
2013-04-06 08:32:00,59.3,54.5,30.07,NNE,16,4.0,6.0,84,0.00,,,0.00,Wunderground v.1.15,2013-04-06 12:32:00,
2013-04-06 08:33:00,59.3,54.5,30.07,NNE,31,5.0,6.0,84,0.00,,,0.00,Wunderground v.1.15,2013-04-06 12:33:00,
2013-04-06 08:34:00,59.4,54.6,30.07,NE,38,4.0,6.0,84,0.00,,,0.00,Wunderground v.1.15,2013-04-06 12:34:00,
2013-04-06 08:37:00,59.4,54.6,30.07,North,352,4.0,8.0,84,0.00,,,0.00,Wunderground v.1.15,2013-04-06 12:37:00,
2013-04-06 08:38:00,59.4,54.6,30.07,NNE,13,2.0,8.0,84,0.00,,,0.00,Wunderground v.1.15,2013-04-06 12:38:00,
2013-04-06 08:39:00,59.4,54.6,30.07,NE,45,9.0,9.0,84,0.00,,,0.00,Wunderground v.1.15,2013-04-06 12:39:00,
2013-04-06 08:40:00,59.4,54.2,30.07,NE,46,3.0,5.0,83,0.00,,,0.00,Wunderground v.1.15,2013-04-06 12:40:00,
2013-04-06 08:42:00,59.3,53.8,30.07,NNE,12,6.0,11.0,82,0.00,,,0.00,Wunderground v.1.15,2013-04-06 12:42:00,
2013-04-06 08:44:00,59.3,53.8,30.07,NE,46,9.0,11.0,82,0.00,,,0.00,Wunderground v.1.15,2013-04-06 12:44:00,
2013-04-06 08:45:00,59.2,53.7,30.07,NNE,19,4.0,13.0,82,0.00,,,0.00,Wunderground v.1.15,2013-04-06 12:45:00,
2013-04-06 08:48:00,59.3,53.8,30.07,NNW,328,2.0,13.0,82,0.00,,,0.00,Wunderground v.1.15,2013-04-06 12:48:00,
2013-04-06 08:50:00,59.3,53.8,30.07,NNE,33,4.0,6.0,82,0.00,,,0.00,Wunderground v.1.15,2013-04-06 12:50:00,
2013-04-06 08:55:00,59.5,53.7,30.07,NNW,345,6.0,10.0,81,0.00,,,0.00,Wunderground v.1.15,2013-04-06 12:55:00,
2013-04-06 08:56:00,59.5,53.7,30.07,ENE,61,7.0,10.0,81,0.00,,,0.00,Wunderground v.1.15,2013-04-06 12:56:00,
2013-04-06 09:00:00,59.6,53.4,30.08,NNE,20,6.0,7.0,80,0.00,,,0.00,Wunderground v.1.15,2013-04-06 13:00:00,
2013-04-06 09:01:00,59.8,53.6,30.08,NW,315,4.0,9.0,80,0.00,,,0.00,Wunderground v.1.15,2013-04-06 13:01:00,
2013-04-06 09:06:00,60.1,53.6,30.08,NNW,331,4.0,11.0,79,0.00,,,0.00,Wunderground v.1.15,2013-04-06 13:06:00,
2013-04-06 09:07:00,60.1,53.6,30.08,NE,49,7.0,11.0,79,0.00,,,0.00,Wunderground v.1.15,2013-04-06 13:07:00,
2013-04-06 09:08:00,60.2,53.7,30.08,NNE,22,5.0,11.0,79,0.00,,,0.00,Wunderground v.1.15,2013-04-06 13:08:00,
2013-04-06 09:12:00,60.3,53.8,30.08,NE,49,4.0,10.0,79,0.00,,,0.00,Wunderground v.1.15,2013-04-06 13:12:00,
2013-04-06 09:13:00,60.4,53.9,30.08,NE,36,4.0,10.0,79,0.00,,,0.00,Wunderground v.1.15,2013-04-06 13:13:00,
2013-04-06 09:15:00,60.7,54.5,30.08,ENE,75,7.0,10.0,80,0.00,,,0.00,Wunderground v.1.15,2013-04-06 13:15:00,
2013-04-06 09:17:00,60.9,54.3,30.08,NNE,19,3.0,10.0,79,0.00,,,0.00,Wunderground v.1.15,2013-04-06 13:17:00,
2013-04-06 09:19:00,61.3,54.7,30.08,NNW,337,1.0,10.0,79,0.00,,,0.00,Wunderground v.1.15,2013-04-06 13:19:00,
2013-04-06 09:20:00,61.5,54.6,30.08,North,355,2.0,4.0,78,0.00,,,0.00,Wunderground v.1.15,2013-04-06 13:20:00,
2013-04-06 09:22:00,61.6,54.3,30.08,NE,36,5.0,6.0,77,0.00,,,0.00,Wunderground v.1.15,2013-04-06 13:22:00,
2013-04-06 09:24:00,61.7,54.8,30.08,NW,315,3.0,6.0,78,0.00,,,0.00,Wunderground v.1.15,2013-04-06 13:24:00,
2013-04-06 09:25:00,61.8,54.5,30.08,North,359,8.0,9.0,77,0.00,,,0.00,Wunderground v.1.15,2013-04-06 13:25:00,
2013-04-06 09:27:00,61.9,54.6,30.08,NNE,29,4.0,9.0,77,0.00,,,0.00,Wunderground v.1.15,2013-04-06 13:27:00,
2013-04-06 09:29:00,61.9,54.6,30.08,North,349,3.0,9.0,77,0.00,,,0.00,Wunderground v.1.15,2013-04-06 13:29:00,
2013-04-06 09:30:00,61.9,54.6,30.08,NNW,348,3.0,5.0,77,0.00,,,0.00,Wunderground v.1.15,2013-04-06 13:30:00,
2013-04-06 09:32:00,61.9,54.2,30.08,NW,320,5.0,8.0,76,0.00,,,0.00,Wunderground v.1.15,2013-04-06 13:32:00,
2013-04-06 09:35:00,61.8,54.5,30.07,NW,321,5.0,8.0,77,0.00,,,0.00,Wunderground v.1.15,2013-04-06 13:35:00,
2013-04-06 09:37:00,62.0,54.7,30.07,NW,313,3.0,8.0,77,0.00,,,0.00,Wunderground v.1.15,2013-04-06 13:37:00,
2013-04-06 09:40:00,62.3,55.0,30.07,NNE,27,4.0,5.0,77,0.00,,,0.00,Wunderground v.1.15,2013-04-06 13:40:00,
2013-04-06 09:41:00,62.4,55.1,30.07,NNW,331,3.0,5.0,77,0.00,,,0.00,Wunderground v.1.15,2013-04-06 13:41:00,
2013-04-06 09:42:00,62.6,54.9,30.07,ENE,67,1.0,5.0,76,0.00,,,0.00,Wunderground v.1.15,2013-04-06 13:42:00,
2013-04-06 09:45:00,62.5,54.5,30.07,East,79,5.0,12.0,75,0.00,,,0.00,Wunderground v.1.15,2013-04-06 13:45:00,
2013-04-06 09:46:00,62.5,54.5,30.07,NE,51,5.0,12.0,75,0.00,,,0.00,Wunderground v.1.15,2013-04-06 13:46:00,
2013-04-06 09:47:00,62.5,54.5,30.07,NE,46,3.0,12.0,75,0.00,,,0.00,Wunderground v.1.15,2013-04-06 13:47:00,
2013-04-06 09:51:00,62.5,54.5,30.07,NE,52,6.0,10.0,75,0.00,,,0.00,Wunderground v.1.15,2013-04-06 13:51:00,
2013-04-06 09:52:00,62.4,54.4,30.07,ENE,73,3.0,10.0,75,0.00,,,0.00,Wunderground v.1.15,2013-04-06 13:52:00,
2013-04-06 09:54:00,62.6,54.9,30.07,NE,41,5.0,12.0,76,0.00,,,0.00,Wunderground v.1.15,2013-04-06 13:54:00,
2013-04-06 09:56:00,62.6,54.6,30.08,NNW,337,5.0,12.0,75,0.00,,,0.00,Wunderground v.1.15,2013-04-06 13:56:00,
2013-04-06 09:57:00,62.6,54.6,30.08,North,352,8.0,12.0,75,0.00,,,0.00,Wunderground v.1.15,2013-04-06 13:57:00,
2013-04-06 10:00:00,62.7,54.7,30.07,NNW,332,3.0,8.0,75,0.00,,,0.00,Wunderground v.1.15,2013-04-06 14:00:00,
2013-04-06 10:02:00,62.8,54.8,30.07,NE,49,6.0,8.0,75,0.00,,,0.00,Wunderground v.1.15,2013-04-06 14:02:00,
2013-04-06 10:03:00,62.9,54.9,30.07,NE,55,5.0,8.0,75,0.00,,,0.00,Wunderground v.1.15,2013-04-06 14:03:00,
2013-04-06 10:05:00,63.0,54.9,30.07,NNE,23,7.0,9.0,75,0.00,,,0.00,Wunderground v.1.15,2013-04-06 14:05:00,
2013-04-06 10:07:00,62.9,54.5,30.07,ENE,77,4.0,9.0,74,0.00,,,0.00,Wunderground v.1.15,2013-04-06 14:07:00,
2013-04-06 10:08:00,62.9,54.5,30.07,East,82,4.0,9.0,74,0.00,,,0.00,Wunderground v.1.15,2013-04-06 14:08:00,
2013-04-06 10:10:00,63.0,54.6,30.08,NE,50,5.0,7.0,74,0.00,,,0.00,Wunderground v.1.15,2013-04-06 14:10:00,
2013-04-06 10:12:00,63.0,54.9,30.07,NE,52,4.0,7.0,75,0.00,,,0.00,Wunderground v.1.15,2013-04-06 14:12:00,
2013-04-06 10:13:00,63.1,55.4,30.07,NNE,28,3.0,7.0,76,0.00,,,0.00,Wunderground v.1.15,2013-04-06 14:13:00,
2013-04-06 10:15:00,63.7,55.6,30.07,North,358,6.0,7.0,75,0.00,,,0.00,Wunderground v.1.15,2013-04-06 14:15:00,
2013-04-06 10:17:00,63.9,55.4,30.07,NE,56,4.0,7.0,74,0.00,,,0.00,Wunderground v.1.15,2013-04-06 14:17:00,
2013-04-06 10:18:00,64.0,55.5,30.07,North,11,4.0,8.0,74,0.00,,,0.00,Wunderground v.1.15,2013-04-06 14:18:00,
2013-04-06 10:20:00,64.1,55.3,30.07,NNW,333,6.0,9.0,73,0.00,,,0.00,Wunderground v.1.15,2013-04-06 14:20:00,
2013-04-06 10:22:00,63.9,55.1,30.07,North,6,7.0,9.0,73,0.00,,,0.00,Wunderground v.1.15,2013-04-06 14:22:00,
2013-04-06 10:23:00,64.1,55.6,30.07,NNW,328,8.0,9.0,74,0.00,,,0.00,Wunderground v.1.15,2013-04-06 14:23:00,
2013-04-06 10:26:00,64.1,55.3,30.07,NNE,16,8.0,9.0,73,0.00,,,0.00,Wunderground v.1.15,2013-04-06 14:26:00,
2013-04-06 10:27:00,64.1,55.3,30.07,WNW,290,2.0,9.0,73,0.00,,,0.00,Wunderground v.1.15,2013-04-06 14:27:00,
2013-04-06 10:28:00,64.1,55.3,30.07,NW,326,3.0,9.0,73,0.00,,,0.00,Wunderground v.1.15,2013-04-06 14:28:00,
2013-04-06 10:32:00,64.4,55.6,30.07,NNE,20,5.0,10.0,73,0.00,,,0.00,Wunderground v.1.15,2013-04-06 14:32:00,
2013-04-06 10:33:00,64.4,55.2,30.07,NNE,19,6.0,10.0,72,0.00,,,0.00,Wunderground v.1.15,2013-04-06 14:33:00,
2013-04-06 10:34:00,64.5,55.7,30.07,NW,323,6.0,10.0,73,0.00,,,0.00,Wunderground v.1.15,2013-04-06 14:34:00,
2013-04-06 10:38:00,64.5,55.3,30.07,East,88,3.0,10.0,72,0.00,,,0.00,Wunderground v.1.15,2013-04-06 14:38:00,
2013-04-06 10:39:00,64.7,55.8,30.07,NNE,31,5.0,5.0,73,0.00,,,0.00,Wunderground v.1.15,2013-04-06 14:39:00,
2013-04-06 10:43:00,64.9,55.7,30.08,NNW,347,5.0,8.0,72,0.00,,,0.00,Wunderground v.1.15,2013-04-06 14:43:00,
2013-04-06 10:44:00,65.0,55.4,30.08,NNW,336,8.0,8.0,71,0.00,,,0.00,Wunderground v.1.15,2013-04-06 14:44:00,
2013-04-06 10:45:00,65.0,55.4,30.08,NW,316,6.0,8.0,71,0.00,,,0.00,Wunderground v.1.15,2013-04-06 14:45:00,
2013-04-06 10:48:00,65.0,55.4,30.08,NE,46,5.0,11.0,71,0.00,,,0.00,Wunderground v.1.15,2013-04-06 14:48:00,
2013-04-06 10:49:00,65.1,55.5,30.08,ENE,62,6.0,6.0,71,0.00,,,0.00,Wunderground v.1.15,2013-04-06 14:49:00,
2013-04-06 10:50:00,65.1,55.5,30.08,NE,49,6.0,7.0,71,0.00,,,0.00,Wunderground v.1.15,2013-04-06 14:50:00,
2013-04-06 10:54:00,65.5,55.8,30.08,ENE,61,4.0,8.0,71,0.00,,,0.00,Wunderground v.1.15,2013-04-06 14:54:00,
2013-04-06 10:55:00,65.5,55.5,30.08,East,96,7.0,8.0,70,0.00,,,0.00,Wunderground v.1.15,2013-04-06 14:55:00,
2013-04-06 10:59:00,65.8,56.1,30.08,NW,311,4.0,8.0,71,0.00,,,0.00,Wunderground v.1.15,2013-04-06 14:59:00,
2013-04-06 11:00:00,65.9,56.2,30.08,NNW,330,5.0,5.0,71,0.00,,,0.00,Wunderground v.1.15,2013-04-06 15:00:00,
2013-04-06 11:05:00,66.4,56.3,30.08,North,359,5.0,9.0,70,0.00,,,0.00,Wunderground v.1.15,2013-04-06 15:05:00,
2013-04-06 11:10:00,66.8,56.3,30.09,East,93,2.0,3.0,69,0.00,,,0.00,Wunderground v.1.15,2013-04-06 15:10:00,
2013-04-06 11:11:00,66.8,56.3,30.09,NE,46,2.0,3.0,69,0.00,,,0.00,Wunderground v.1.15,2013-04-06 15:11:00,
2013-04-06 11:15:00,66.8,56.3,30.08,ENE,72,4.0,8.0,69,0.00,,,0.00,Wunderground v.1.15,2013-04-06 15:15:00,
2013-04-06 11:16:00,66.8,56.3,30.09,ENE,72,4.0,8.0,69,0.00,,,0.00,Wunderground v.1.15,2013-04-06 15:16:00,
2013-04-06 11:17:00,66.9,56.4,30.08,NNW,334,5.0,8.0,69,0.00,,,0.00,Wunderground v.1.15,2013-04-06 15:17:00,
2013-04-06 11:20:00,67.1,56.6,30.09,NNE,19,6.0,6.0,69,0.00,,,0.00,Wunderground v.1.15,2013-04-06 15:20:00,
2013-04-06 11:22:00,67.2,56.3,30.09,NW,318,3.0,7.0,68,0.00,,,0.00,Wunderground v.1.15,2013-04-06 15:22:00,
2013-04-06 11:25:00,67.1,56.2,30.08,WNW,291,3.0,9.0,68,0.00,,,0.00,Wunderground v.1.15,2013-04-06 15:25:00,
2013-04-06 11:27:00,67.2,56.7,30.08,NNW,332,11.0,11.0,69,0.00,,,0.00,Wunderground v.1.15,2013-04-06 15:27:00,
2013-04-06 11:28:00,67.2,56.7,30.08,NW,322,10.0,13.0,69,0.00,,,0.00,Wunderground v.1.15,2013-04-06 15:28:00,
2013-04-06 11:30:00,67.3,56.0,30.08,NNW,347,6.0,9.0,67,0.00,,,0.00,Wunderground v.1.15,2013-04-06 15:30:00,
2013-04-06 11:33:00,67.4,56.5,30.08,NNW,340,4.0,9.0,68,0.00,,,0.00,Wunderground v.1.15,2013-04-06 15:33:00,
2013-04-06 11:35:00,67.8,56.9,30.08,NE,54,8.0,9.0,68,0.00,,,0.00,Wunderground v.1.15,2013-04-06 15:35:00,
2013-04-06 11:38:00,67.7,55.9,30.08,East,101,5.0,9.0,66,0.00,,,0.00,Wunderground v.1.15,2013-04-06 15:38:00,
2013-04-06 11:39:00,67.7,55.9,30.08,ENE,64,5.0,9.0,66,0.00,,,0.00,Wunderground v.1.15,2013-04-06 15:39:00,
2013-04-06 11:40:00,67.6,56.2,30.08,ENE,72,3.0,6.0,67,0.00,,,0.00,Wunderground v.1.15,2013-04-06 15:40:00,
2013-04-06 11:41:00,67.6,56.2,30.08,NE,49,6.0,7.0,67,0.00,,,0.00,Wunderground v.1.15,2013-04-06 15:41:00,
2013-04-06 11:43:00,67.7,56.3,30.08,NNE,29,3.0,10.0,67,0.00,,,0.00,Wunderground v.1.15,2013-04-06 15:43:00,
2013-04-06 11:44:00,67.7,56.3,30.08,ENE,62,1.0,10.0,67,0.00,,,0.00,Wunderground v.1.15,2013-04-06 15:44:00,
2013-04-06 11:46:00,67.6,56.2,30.08,North,10,3.0,10.0,67,0.00,,,0.00,Wunderground v.1.15,2013-04-06 15:46:00,
2013-04-06 11:47:00,67.7,56.3,30.08,NNE,13,2.0,10.0,67,0.00,,,0.00,Wunderground v.1.15,2013-04-06 15:47:00,
2013-04-06 11:48:00,67.9,56.9,30.08,NW,323,2.0,10.0,68,0.00,,,0.00,Wunderground v.1.15,2013-04-06 15:48:00,
2013-04-06 11:50:00,68.2,57.2,30.08,ENE,60,4.0,4.0,68,0.00,,,0.00,Wunderground v.1.15,2013-04-06 15:50:00,
2013-04-06 11:52:00,68.6,56.8,30.08,NNE,32,6.0,10.0,66,0.00,,,0.00,Wunderground v.1.15,2013-04-06 15:52:00,
2013-04-06 11:54:00,68.6,56.4,30.08,NE,43,6.0,10.0,65,0.00,,,0.00,Wunderground v.1.15,2013-04-06 15:54:00,
2013-04-06 11:55:00,68.6,56.8,30.08,NE,53,6.0,10.0,66,0.00,,,0.00,Wunderground v.1.15,2013-04-06 15:55:00,
2013-04-06 11:57:00,68.4,56.6,30.08,ENE,62,6.0,10.0,66,0.00,,,0.00,Wunderground v.1.15,2013-04-06 15:57:00,
2013-04-06 11:59:00,68.5,57.1,30.08,NE,45,5.0,10.0,67,0.00,,,0.00,Wunderground v.1.15,2013-04-06 15:59:00,
2013-04-06 12:00:00,68.4,56.2,30.08,NE,43,4.0,5.0,65,0.00,,,0.00,Wunderground v.1.15,2013-04-06 16:00:00,
2013-04-06 12:03:00,68.7,56.9,30.08,NNW,337,3.0,8.0,66,0.00,,,0.00,Wunderground v.1.15,2013-04-06 16:03:00,
2013-04-06 12:04:00,69.0,57.6,30.08,NE,50,4.0,8.0,67,0.00,,,0.00,Wunderground v.1.15,2013-04-06 16:04:00,
2013-04-06 12:05:00,69.2,57.4,30.08,NE,43,2.0,8.0,66,0.00,,,0.00,Wunderground v.1.15,2013-04-06 16:05:00,
2013-04-06 12:08:00,69.4,56.7,30.08,NNW,342,4.0,8.0,64,0.00,,,0.00,Wunderground v.1.15,2013-04-06 16:08:00,
2013-04-06 12:10:00,69.4,57.1,30.08,NNE,27,5.0,5.0,65,0.00,,,0.00,Wunderground v.1.15,2013-04-06 16:10:00,
2013-04-06 12:12:00,69.7,57.8,30.08,NNE,27,4.0,9.0,66,0.00,,,0.00,Wunderground v.1.15,2013-04-06 16:12:00,
2013-04-06 12:14:00,69.9,57.2,30.08,NNW,347,3.0,9.0,64,0.00,,,0.00,Wunderground v.1.15,2013-04-06 16:14:00,
2013-04-06 12:15:00,70.0,57.3,30.08,East,83,4.0,9.0,64,0.00,,,0.00,Wunderground v.1.15,2013-04-06 16:15:00,
2013-04-06 12:17:00,70.2,57.4,30.08,NNE,16,3.0,9.0,64,0.00,,,0.00,Wunderground v.1.15,2013-04-06 16:17:00,
2013-04-06 12:19:00,70.4,57.6,30.08,NNE,18,2.0,9.0,64,0.00,,,0.00,Wunderground v.1.15,2013-04-06 16:19:00,
2013-04-06 12:20:00,70.6,57.8,30.08,North,354,4.0,4.0,64,0.00,,,0.00,Wunderground v.1.15,2013-04-06 16:20:00,
2013-04-06 12:22:00,70.6,57.4,30.08,ESE,105,5.0,9.0,63,0.00,,,0.00,Wunderground v.1.15,2013-04-06 16:22:00,
2013-04-06 12:25:00,70.3,56.7,30.08,East,82,6.0,9.0,62,0.00,,,0.00,Wunderground v.1.15,2013-04-06 16:25:00,
2013-04-06 12:26:00,69.8,57.1,30.08,East,98,1.0,9.0,64,0.00,,,0.00,Wunderground v.1.15,2013-04-06 16:26:00,
2013-04-06 12:28:00,69.8,57.1,30.08,NE,39,5.0,9.0,64,0.00,,,0.00,Wunderground v.1.15,2013-04-06 16:28:00,
2013-04-06 12:30:00,70.0,57.3,30.08,NE,41,8.0,8.0,64,0.00,,,0.00,Wunderground v.1.15,2013-04-06 16:30:00,
2013-04-06 12:31:00,70.2,57.4,30.08,North,349,4.0,9.0,64,0.00,,,0.00,Wunderground v.1.15,2013-04-06 16:31:00,
2013-04-06 12:33:00,70.6,57.4,30.08,NNW,345,4.0,9.0,63,0.00,,,0.00,Wunderground v.1.15,2013-04-06 16:33:00,
2013-04-06 12:35:00,70.7,57.0,30.08,ENE,58,2.0,9.0,62,0.00,,,0.00,Wunderground v.1.15,2013-04-06 16:35:00,
2013-04-06 12:37:00,70.8,57.1,30.08,East,96,3.0,9.0,62,0.00,,,0.00,Wunderground v.1.15,2013-04-06 16:37:00,
2013-04-06 12:38:00,70.9,57.7,30.08,ESE,105,0.0,9.0,63,0.00,,,0.00,Wunderground v.1.15,2013-04-06 16:38:00,
2013-04-06 12:40:00,71.2,57.5,30.07,East,98,3.0,4.0,62,0.00,,,0.00,Wunderground v.1.15,2013-04-06 16:40:00,
2013-04-06 12:42:00,71.4,58.6,30.08,NE,46,4.0,5.0,64,0.00,,,0.00,Wunderground v.1.15,2013-04-06 16:42:00,
2013-04-06 12:43:00,71.6,57.9,30.08,NNE,12,7.0,7.0,62,0.00,,,0.00,Wunderground v.1.15,2013-04-06 16:43:00,
2013-04-06 12:45:00,71.6,57.9,30.07,NE,41,9.0,11.0,62,0.00,,,0.00,Wunderground v.1.15,2013-04-06 16:45:00,
2013-04-06 12:47:00,71.4,57.7,30.07,WNW,295,4.0,11.0,62,0.00,,,0.00,Wunderground v.1.15,2013-04-06 16:47:00,
2013-04-06 12:49:00,71.4,57.7,30.08,NE,44,1.0,11.0,62,0.00,,,0.00,Wunderground v.1.15,2013-04-06 16:49:00,
2013-04-06 12:50:00,71.4,57.7,30.07,ESE,109,5.0,6.0,62,0.00,,,0.00,Wunderground v.1.15,2013-04-06 16:50:00,
2013-04-06 12:52:00,71.4,58.1,30.07,NE,56,5.0,8.0,63,0.00,,,0.00,Wunderground v.1.15,2013-04-06 16:52:00,
2013-04-06 12:54:00,71.3,57.2,30.07,SE,143,4.0,8.0,61,0.00,,,0.00,Wunderground v.1.15,2013-04-06 16:54:00,
2013-04-06 12:56:00,71.2,57.5,30.07,NE,51,4.0,8.0,62,0.00,,,0.00,Wunderground v.1.15,2013-04-06 16:56:00,
2013-04-06 12:58:00,71.1,57.4,30.07,WSW,258,4.0,8.0,62,0.00,,,0.00,Wunderground v.1.15,2013-04-06 16:58:00,
2013-04-06 12:59:00,71.5,57.8,30.07,North,349,6.0,8.0,62,0.00,,,0.00,Wunderground v.1.15,2013-04-06 16:59:00,
2013-04-06 13:01:00,71.7,58.0,30.07,NE,45,4.0,7.0,62,0.00,,,0.00,Wunderground v.1.15,2013-04-06 17:01:00,
2013-04-06 13:03:00,71.8,57.6,30.07,NE,40,4.0,7.0,61,0.00,,,0.00,Wunderground v.1.15,2013-04-06 17:03:00,
2013-04-06 13:05:00,71.8,58.1,30.07,NNW,344,5.0,7.0,62,0.00,,,0.00,Wunderground v.1.15,2013-04-06 17:05:00,
2013-04-06 13:06:00,71.8,57.6,30.06,North,355,6.0,8.0,61,0.00,,,0.00,Wunderground v.1.15,2013-04-06 17:06:00,
2013-04-06 13:08:00,72.1,57.9,30.06,ENE,77,2.0,11.0,61,0.00,,,0.00,Wunderground v.1.15,2013-04-06 17:08:00,
2013-04-06 13:10:00,72.2,58.0,30.07,NE,55,2.0,4.0,61,0.00,,,0.00,Wunderground v.1.15,2013-04-06 17:10:00,
2013-04-06 13:11:00,72.2,58.5,30.07,NW,307,4.0,4.0,62,0.00,,,0.00,Wunderground v.1.15,2013-04-06 17:11:00,
2013-04-06 13:13:00,71.6,58.8,30.07,West,266,4.0,5.0,64,0.00,,,0.00,Wunderground v.1.15,2013-04-06 17:13:00,
2013-04-06 13:15:00,70.8,59.7,30.06,WNW,288,7.0,8.0,68,0.00,,,0.00,Wunderground v.1.15,2013-04-06 17:15:00,
2013-04-06 13:16:00,70.4,58.9,30.07,NW,307,5.0,9.0,67,0.00,,,0.00,Wunderground v.1.15,2013-04-06 17:16:00,
2013-04-06 13:18:00,70.3,59.6,30.06,WSW,248,5.0,9.0,69,0.00,,,0.00,Wunderground v.1.15,2013-04-06 17:18:00,
2013-04-06 13:21:00,70.3,60.1,30.06,WSW,243,4.0,9.0,70,0.00,,,0.00,Wunderground v.1.15,2013-04-06 17:21:00,
2013-04-06 13:22:00,70.3,59.2,30.06,WSW,251,7.0,9.0,68,0.00,,,0.00,Wunderground v.1.15,2013-04-06 17:22:00,
2013-04-06 13:23:00,70.0,59.4,30.06,WSW,245,1.0,9.0,69,0.00,,,0.00,Wunderground v.1.15,2013-04-06 17:23:00,
2013-04-06 13:26:00,70.1,59.5,30.06,WNW,302,7.0,11.0,69,0.00,,,0.00,Wunderground v.1.15,2013-04-06 17:26:00,
2013-04-06 13:27:00,70.1,59.5,30.06,West,267,9.0,11.0,69,0.00,,,0.00,Wunderground v.1.15,2013-04-06 17:27:00,
2013-04-06 13:28:00,69.9,59.3,30.06,WSW,256,6.0,11.0,69,0.00,,,0.00,Wunderground v.1.15,2013-04-06 17:28:00,
2013-04-06 13:32:00,70.1,59.9,30.06,WSW,247,7.0,7.0,70,0.00,,,0.00,Wunderground v.1.15,2013-04-06 17:32:00,
2013-04-06 13:33:00,69.9,59.3,30.06,WSW,250,9.0,9.0,69,0.00,,,0.00,Wunderground v.1.15,2013-04-06 17:33:00,
2013-04-06 13:34:00,69.9,59.3,30.06,West,262,7.0,9.0,69,0.00,,,0.00,Wunderground v.1.15,2013-04-06 17:34:00,
2013-04-06 13:37:00,69.8,59.6,30.06,SW,229,10.0,14.0,70,0.00,,,0.00,Wunderground v.1.15,2013-04-06 17:37:00,
2013-04-06 13:38:00,69.6,59.0,30.06,SW,233,7.0,14.0,69,0.00,,,0.00,Wunderground v.1.15,2013-04-06 17:38:00,
2013-04-06 13:39:00,69.6,59.8,30.06,SW,231,4.0,14.0,71,0.00,,,0.00,Wunderground v.1.15,2013-04-06 17:39:00,
2013-04-06 13:42:00,69.7,60.3,30.06,SSW,213,6.0,7.0,72,0.00,,,0.00,Wunderground v.1.15,2013-04-06 17:42:00,
2013-04-06 13:43:00,69.7,60.3,30.06,SW,219,3.0,7.0,72,0.00,,,0.00,Wunderground v.1.15,2013-04-06 17:43:00,
2013-04-06 13:44:00,69.9,59.7,30.06,SW,233,6.0,8.0,70,0.00,,,0.00,Wunderground v.1.15,2013-04-06 17:44:00,
2013-04-06 13:47:00,69.7,59.9,30.06,WNW,287,3.0,10.0,71,0.00,,,0.00,Wunderground v.1.15,2013-04-06 17:47:00,
2013-04-06 13:48:00,69.7,59.9,30.06,SW,236,10.0,10.0,71,0.00,,,0.00,Wunderground v.1.15,2013-04-06 17:48:00,
2013-04-06 13:49:00,69.5,59.3,30.06,SW,225,6.0,8.0,70,0.00,,,0.00,Wunderground v.1.15,2013-04-06 17:49:00,
2013-04-06 13:50:00,69.5,59.3,30.06,WSW,253,6.0,8.0,70,0.00,,,0.00,Wunderground v.1.15,2013-04-06 17:50:00,
2013-04-06 13:52:00,69.6,60.2,30.06,WSW,254,3.0,8.0,72,0.00,,,0.00,Wunderground v.1.15,2013-04-06 17:52:00,
2013-04-06 13:54:00,69.7,59.5,30.06,WSW,255,7.0,10.0,70,0.00,,,0.00,Wunderground v.1.15,2013-04-06 17:54:00,
2013-04-06 13:55:00,69.5,59.3,30.06,SSW,210,7.0,12.0,70,0.00,,,0.00,Wunderground v.1.15,2013-04-06 17:55:00,
2013-04-06 13:57:00,69.4,60.0,30.06,WSW,251,6.0,12.0,72,0.00,,,0.00,Wunderground v.1.15,2013-04-06 17:57:00,
2013-04-06 14:00:00,69.5,59.7,30.06,WNW,288,2.0,6.0,71,0.00,,,0.00,Wunderground v.1.15,2013-04-06 18:00:00,
2013-04-06 14:02:00,69.6,59.4,30.06,WNW,285,10.0,12.0,70,0.00,,,0.00,Wunderground v.1.15,2013-04-06 18:02:00,
2013-04-06 14:05:00,69.3,59.5,30.06,West,264,7.0,14.0,71,0.00,,,0.00,Wunderground v.1.15,2013-04-06 18:05:00,
2013-04-06 14:08:00,69.2,59.4,30.06,West,270,6.0,14.0,71,0.00,,,0.00,Wunderground v.1.15,2013-04-06 18:08:00,
2013-04-06 14:10:00,68.9,59.5,30.06,WNW,288,7.0,7.0,72,0.00,,,0.00,Wunderground v.1.15,2013-04-06 18:10:00,
2013-04-06 14:13:00,68.7,58.9,30.05,NNW,337,7.0,14.0,71,0.00,,,0.00,Wunderground v.1.15,2013-04-06 18:13:00,
2013-04-06 14:15:00,68.7,59.3,30.05,NW,305,8.0,15.0,72,0.00,,,0.00,Wunderground v.1.15,2013-04-06 18:15:00,
2013-04-06 14:16:00,68.7,59.3,30.05,West,280,7.0,15.0,72,0.00,,,0.00,Wunderground v.1.15,2013-04-06 18:16:00,
2013-04-06 14:18:00,68.8,59.0,30.06,WSW,257,7.0,16.0,71,0.00,,,0.00,Wunderground v.1.15,2013-04-06 18:18:00,
2013-04-06 14:20:00,68.7,59.3,30.05,WNW,284,17.0,17.0,72,0.00,,,0.00,Wunderground v.1.15,2013-04-06 18:20:00,
2013-04-06 14:21:00,68.7,59.3,30.05,WNW,296,13.0,18.0,72,0.00,,,0.00,Wunderground v.1.15,2013-04-06 18:21:00,
2013-04-06 14:22:00,68.6,58.8,30.05,NW,309,7.0,18.0,71,0.00,,,0.00,Wunderground v.1.15,2013-04-06 18:22:00,
2013-04-06 14:24:00,68.7,59.3,30.05,West,259,10.0,18.0,72,0.00,,,0.00,Wunderground v.1.15,2013-04-06 18:24:00,
2013-04-06 14:26:00,68.7,59.3,30.05,WNW,294,6.0,18.0,72,0.00,,,0.00,Wunderground v.1.15,2013-04-06 18:26:00,
2013-04-06 14:27:00,68.8,59.8,30.06,WSW,257,4.0,18.0,73,0.00,,,0.00,Wunderground v.1.15,2013-04-06 18:27:00,
2013-04-06 14:29:00,68.8,59.0,30.06,WSW,257,9.0,18.0,71,0.00,,,0.00,Wunderground v.1.15,2013-04-06 18:29:00,
2013-04-06 14:32:00,68.6,58.8,30.06,West,262,6.0,11.0,71,0.00,,,0.00,Wunderground v.1.15,2013-04-06 18:32:00,
2013-04-06 14:34:00,68.5,59.1,30.05,West,260,8.0,11.0,72,0.00,,,0.00,Wunderground v.1.15,2013-04-06 18:34:00,
2013-04-06 14:37:00,68.4,59.0,30.05,WNW,283,6.0,12.0,72,0.00,,,0.00,Wunderground v.1.15,2013-04-06 18:37:00,
2013-04-06 14:38:00,68.4,59.0,30.05,WSW,250,5.0,12.0,72,0.00,,,0.00,Wunderground v.1.15,2013-04-06 18:38:00,
2013-04-06 14:40:00,68.3,58.9,30.05,WNW,295,6.0,8.0,72,0.00,,,0.00,Wunderground v.1.15,2013-04-06 18:40:00,
2013-04-06 14:42:00,68.2,59.2,30.05,West,277,8.0,14.0,73,0.00,,,0.00,Wunderground v.1.15,2013-04-06 18:42:00,
2013-04-06 14:43:00,68.2,59.2,30.06,West,263,11.0,15.0,73,0.00,,,0.00,Wunderground v.1.15,2013-04-06 18:43:00,
2013-04-06 14:45:00,68.1,58.7,30.06,West,281,8.0,15.0,72,0.00,,,0.00,Wunderground v.1.15,2013-04-06 18:45:00,
2013-04-06 14:47:00,67.9,58.5,30.05,WNW,283,7.0,15.0,72,0.00,,,0.00,Wunderground v.1.15,2013-04-06 18:47:00,
2013-04-06 14:48:00,67.9,58.5,30.05,West,281,10.0,15.0,72,0.00,,,0.00,Wunderground v.1.15,2013-04-06 18:48:00,
2013-04-06 14:50:00,68.0,59.4,30.05,WSW,255,8.0,12.0,74,0.00,,,0.00,Wunderground v.1.15,2013-04-06 18:50:00,
2013-04-06 14:52:00,68.1,59.1,30.05,West,267,4.0,14.0,73,0.00,,,0.00,Wunderground v.1.15,2013-04-06 18:52:00,
2013-04-06 14:53:00,68.1,59.1,30.05,NW,314,6.0,14.0,73,0.00,,,0.00,Wunderground v.1.15,2013-04-06 18:53:00,
2013-04-06 14:55:00,68.2,58.8,30.05,WNW,289,10.0,14.0,72,0.00,,,0.00,Wunderground v.1.15,2013-04-06 18:55:00,
2013-04-06 14:57:00,68.2,58.8,30.05,WSW,256,6.0,14.0,72,0.00,,,0.00,Wunderground v.1.15,2013-04-06 18:57:00,
2013-04-06 14:58:00,68.2,58.8,30.05,WNW,301,8.0,14.0,72,0.00,,,0.00,Wunderground v.1.15,2013-04-06 18:58:00,
2013-04-06 15:01:00,68.5,59.5,30.05,NW,313,14.0,14.0,73,0.00,,,0.00,Wunderground v.1.15,2013-04-06 19:01:00,
2013-04-06 15:03:00,68.6,58.8,30.05,NW,307,5.0,14.0,71,0.00,,,0.00,Wunderground v.1.15,2013-04-06 19:03:00,
2013-04-06 15:04:00,68.6,58.8,30.05,SSW,212,7.0,14.0,71,0.00,,,0.00,Wunderground v.1.15,2013-04-06 19:04:00,
2013-04-06 15:06:00,68.5,59.1,30.05,NW,309,10.0,14.0,72,0.00,,,0.00,Wunderground v.1.15,2013-04-06 19:06:00,
2013-04-06 15:09:00,68.4,59.0,30.05,West,263,8.0,14.0,72,0.00,,,0.00,Wunderground v.1.15,2013-04-06 19:09:00,
2013-04-06 15:10:00,68.3,58.9,30.05,West,279,7.0,10.0,72,0.00,,,0.00,Wunderground v.1.15,2013-04-06 19:10:00,
2013-04-06 15:12:00,68.1,58.7,30.05,WNW,283,6.0,10.0,72,0.00,,,0.00,Wunderground v.1.15,2013-04-06 19:12:00,
2013-04-06 15:14:00,68.0,59.0,30.05,WSW,252,6.0,14.0,73,0.00,,,0.00,Wunderground v.1.15,2013-04-06 19:14:00,
2013-04-06 15:15:00,68.0,58.6,30.05,WSW,255,6.0,14.0,72,0.00,,,0.00,Wunderground v.1.15,2013-04-06 19:15:00,
2013-04-06 15:18:00,68.1,59.1,30.04,SW,235,6.0,14.0,73,0.00,,,0.00,Wunderground v.1.15,2013-04-06 19:18:00,
2013-04-06 15:20:00,68.4,59.0,30.04,WNW,287,3.0,7.0,72,0.00,,,0.00,Wunderground v.1.15,2013-04-06 19:20:00,
2013-04-06 15:22:00,68.5,59.1,30.04,WSW,245,6.0,12.0,72,0.00,,,0.00,Wunderground v.1.15,2013-04-06 19:22:00,
2013-04-06 15:25:00,68.6,59.2,30.04,West,269,6.0,12.0,72,0.00,,,0.00,Wunderground v.1.15,2013-04-06 19:25:00,
2013-04-06 15:26:00,68.7,59.3,30.04,WNW,302,3.0,12.0,72,0.00,,,0.00,Wunderground v.1.15,2013-04-06 19:26:00,
2013-04-06 15:28:00,68.8,59.0,30.04,WSW,246,9.0,12.0,71,0.00,,,0.00,Wunderground v.1.15,2013-04-06 19:28:00,
2013-04-06 15:30:00,68.5,58.7,30.04,SW,222,11.0,11.0,71,0.00,,,0.00,Wunderground v.1.15,2013-04-06 19:30:00,
2013-04-06 15:31:00,68.5,59.1,30.04,NNW,336,8.0,12.0,72,0.00,,,0.00,Wunderground v.1.15,2013-04-06 19:31:00,
2013-04-06 15:33:00,68.4,59.0,30.04,WNW,285,9.0,12.0,72,0.00,,,0.00,Wunderground v.1.15,2013-04-06 19:33:00,
2013-04-06 15:35:00,68.3,58.9,30.04,West,277,8.0,12.0,72,0.00,,,0.00,Wunderground v.1.15,2013-04-06 19:35:00,
2013-04-06 15:37:00,68.2,59.2,30.04,WNW,294,11.0,12.0,73,0.00,,,0.00,Wunderground v.1.15,2013-04-06 19:37:00,
2013-04-06 15:40:00,68.4,59.4,30.04,West,269,4.0,8.0,73,0.00,,,0.00,Wunderground v.1.15,2013-04-06 19:40:00,
2013-04-06 15:41:00,68.5,59.5,30.04,WNW,285,8.0,11.0,73,0.00,,,0.00,Wunderground v.1.15,2013-04-06 19:41:00,
2013-04-06 15:42:00,68.6,59.6,30.04,West,277,10.0,11.0,73,0.00,,,0.00,Wunderground v.1.15,2013-04-06 19:42:00,
2013-04-06 15:43:00,68.7,59.3,30.04,West,276,2.0,13.0,72,0.00,,,0.00,Wunderground v.1.15,2013-04-06 19:43:00,
2013-04-06 15:45:00,68.7,59.3,30.04,West,264,9.0,13.0,72,0.00,,,0.00,Wunderground v.1.15,2013-04-06 19:45:00,
2013-04-06 15:46:00,68.7,59.7,30.04,SW,229,10.0,13.0,73,0.00,,,0.00,Wunderground v.1.15,2013-04-06 19:46:00,
2013-04-06 15:47:00,68.7,59.3,30.04,WSW,257,5.0,13.0,72,0.00,,,0.00,Wunderground v.1.15,2013-04-06 19:47:00,
2013-04-06 15:48:00,68.6,59.2,30.04,WNW,301,3.0,13.0,72,0.00,,,0.00,Wunderground v.1.15,2013-04-06 19:48:00,
2013-04-06 15:50:00,68.5,59.5,30.04,WSW,239,10.0,10.0,73,0.00,,,0.00,Wunderground v.1.15,2013-04-06 19:50:00,
2013-04-06 15:52:00,68.6,59.6,30.04,West,262,10.0,12.0,73,0.00,,,0.00,Wunderground v.1.15,2013-04-06 19:52:00,
2013-04-06 15:54:00,68.7,60.1,30.04,WSW,239,8.0,12.0,74,0.00,,,0.00,Wunderground v.1.15,2013-04-06 19:54:00,
2013-04-06 15:55:00,68.7,59.3,30.04,West,266,5.0,12.0,72,0.00,,,0.00,Wunderground v.1.15,2013-04-06 19:55:00,
2013-04-06 15:57:00,68.7,59.3,30.04,WNW,288,2.0,12.0,72,0.00,,,0.00,Wunderground v.1.15,2013-04-06 19:57:00,
2013-04-06 15:59:00,68.6,59.2,30.04,West,274,11.0,12.0,72,0.00,,,0.00,Wunderground v.1.15,2013-04-06 19:59:00,
2013-04-06 16:00:00,68.4,59.0,30.04,WSW,239,10.0,11.0,72,0.00,,,0.00,Wunderground v.1.15,2013-04-06 20:00:00,
2013-04-06 16:03:00,68.4,59.4,30.04,West,271,6.0,11.0,73,0.00,,,0.00,Wunderground v.1.15,2013-04-06 20:03:00,
2013-04-06 16:05:00,68.3,59.7,30.04,West,280,7.0,11.0,74,0.00,,,0.00,Wunderground v.1.15,2013-04-06 20:05:00,
2013-04-06 16:08:00,68.5,59.9,30.04,WNW,297,5.0,12.0,74,0.00,,,0.00,Wunderground v.1.15,2013-04-06 20:08:00,
2013-04-06 16:10:00,68.4,59.4,30.04,NW,313,7.0,11.0,73,0.00,,,0.00,Wunderground v.1.15,2013-04-06 20:10:00,
2013-04-06 16:13:00,68.4,59.8,30.04,West,274,9.0,11.0,74,0.00,,,0.00,Wunderground v.1.15,2013-04-06 20:13:00,
2013-04-06 16:16:00,68.6,60.0,30.04,WNW,288,12.0,12.0,74,0.00,,,0.00,Wunderground v.1.15,2013-04-06 20:16:00,
2013-04-06 16:18:00,68.3,58.9,30.04,West,269,10.0,13.0,72,0.00,,,0.00,Wunderground v.1.15,2013-04-06 20:18:00,
2013-04-06 16:20:00,68.2,59.6,30.03,WNW,285,6.0,8.0,74,0.00,,,0.00,Wunderground v.1.15,2013-04-06 20:20:00,
2013-04-06 16:21:00,68.1,59.1,30.03,WSW,249,6.0,13.0,73,0.00,,,0.00,Wunderground v.1.15,2013-04-06 20:21:00,
2013-04-06 16:23:00,68.1,59.9,30.03,NNW,330,11.0,13.0,75,0.00,,,0.00,Wunderground v.1.15,2013-04-06 20:23:00,
2013-04-06 16:25:00,68.1,59.5,30.03,NNW,335,8.0,13.0,74,0.00,,,0.00,Wunderground v.1.15,2013-04-06 20:25:00,
2013-04-06 16:26:00,68.0,59.4,30.03,WNW,295,3.0,13.0,74,0.00,,,0.00,Wunderground v.1.15,2013-04-06 20:26:00,
2013-04-06 16:29:00,68.2,59.6,30.03,WNW,288,10.0,10.0,74,0.00,,,0.00,Wunderground v.1.15,2013-04-06 20:29:00,
2013-04-06 16:30:00,68.2,60.0,30.03,NW,304,9.0,11.0,75,0.00,,,0.00,Wunderground v.1.15,2013-04-06 20:30:00,
2013-04-06 16:31:00,68.3,60.1,30.03,WNW,288,7.0,11.0,75,0.00,,,0.00,Wunderground v.1.15,2013-04-06 20:31:00,
2013-04-06 16:35:00,68.6,60.0,30.03,NNW,330,3.0,11.0,74,0.00,,,0.00,Wunderground v.1.15,2013-04-06 20:35:00,
2013-04-06 16:36:00,68.9,60.6,30.03,West,264,5.0,11.0,75,0.00,,,0.00,Wunderground v.1.15,2013-04-06 20:36:00,
2013-04-06 16:37:00,68.9,60.6,30.03,WNW,292,6.0,11.0,75,0.00,,,0.00,Wunderground v.1.15,2013-04-06 20:37:00,
2013-04-06 16:40:00,69.1,60.5,30.03,WNW,285,4.0,6.0,74,0.00,,,0.00,Wunderground v.1.15,2013-04-06 20:40:00,
2013-04-06 16:41:00,69.2,60.9,30.03,West,274,4.0,6.0,75,0.00,,,0.00,Wunderground v.1.15,2013-04-06 20:41:00,
2013-04-06 16:42:00,69.2,60.6,30.03,NW,307,8.0,8.0,74,0.00,,,0.00,Wunderground v.1.15,2013-04-06 20:42:00,
2013-04-06 16:45:00,69.0,60.4,30.03,NW,320,3.0,11.0,74,0.00,,,0.00,Wunderground v.1.15,2013-04-06 20:45:00,
2013-04-06 16:47:00,69.1,60.5,30.03,WSW,253,7.0,11.0,74,0.00,,,0.00,Wunderground v.1.15,2013-04-06 20:47:00,
2013-04-06 16:51:00,69.3,60.7,30.03,NW,319,7.0,11.0,74,0.00,,,0.00,Wunderground v.1.15,2013-04-06 20:51:00,
2013-04-06 16:52:00,69.3,61.0,30.03,WNW,288,8.0,11.0,75,0.00,,,0.00,Wunderground v.1.15,2013-04-06 20:52:00,
2013-04-06 16:57:00,69.1,60.8,30.03,West,277,5.0,11.0,75,0.00,,,0.00,Wunderground v.1.15,2013-04-06 20:57:00,
2013-04-06 16:59:00,69.3,60.7,30.03,WNW,294,2.0,11.0,74,0.00,,,0.00,Wunderground v.1.15,2013-04-06 20:59:00,
2013-04-06 17:02:00,69.5,61.2,30.03,WNW,283,7.0,9.0,75,0.00,,,0.00,Wunderground v.1.15,2013-04-06 21:02:00,
2013-04-06 17:03:00,69.6,60.9,30.03,West,263,6.0,9.0,74,0.00,,,0.00,Wunderground v.1.15,2013-04-06 21:03:00,
2013-04-06 17:05:00,69.6,61.3,30.02,West,274,3.0,10.0,75,0.00,,,0.00,Wunderground v.1.15,2013-04-06 21:05:00,
2013-04-06 17:07:00,69.6,60.9,30.03,WNW,294,5.0,10.0,74,0.00,,,0.00,Wunderground v.1.15,2013-04-06 21:07:00,
2013-04-06 17:08:00,69.6,60.9,30.03,NW,312,4.0,10.0,74,0.00,,,0.00,Wunderground v.1.15,2013-04-06 21:08:00,
2013-04-06 17:10:00,69.7,60.7,30.03,NW,319,8.0,8.0,73,0.00,,,0.00,Wunderground v.1.15,2013-04-06 21:10:00,
2013-04-06 17:13:00,69.3,60.3,30.03,WNW,293,8.0,9.0,73,0.00,,,0.00,Wunderground v.1.15,2013-04-06 21:13:00,
2013-04-06 17:15:00,69.1,60.1,30.02,NW,319,4.0,9.0,73,0.00,,,0.00,Wunderground v.1.15,2013-04-06 21:15:00,
2013-04-06 17:18:00,69.2,60.9,30.02,WNW,298,7.0,10.0,75,0.00,,,0.00,Wunderground v.1.15,2013-04-06 21:18:00,
2013-04-06 17:19:00,69.3,60.7,30.02,West,281,2.0,10.0,74,0.00,,,0.00,Wunderground v.1.15,2013-04-06 21:19:00,
2013-04-06 17:20:00,69.3,60.7,30.02,West,277,2.0,8.0,74,0.00,,,0.00,Wunderground v.1.15,2013-04-06 21:20:00,
2013-04-06 17:23:00,69.6,60.9,30.02,WNW,285,8.0,11.0,74,0.00,,,0.00,Wunderground v.1.15,2013-04-06 21:23:00,
2013-04-06 17:24:00,69.5,60.5,30.03,WSW,254,5.0,11.0,73,0.00,,,0.00,Wunderground v.1.15,2013-04-06 21:24:00,
2013-04-06 17:26:00,69.5,60.8,30.03,West,266,2.0,11.0,74,0.00,,,0.00,Wunderground v.1.15,2013-04-06 21:26:00,
2013-04-06 17:27:00,69.6,60.9,30.03,NW,305,8.0,11.0,74,0.00,,,0.00,Wunderground v.1.15,2013-04-06 21:27:00,
2013-04-06 17:28:00,69.5,60.5,30.03,WNW,293,6.0,11.0,73,0.00,,,0.00,Wunderground v.1.15,2013-04-06 21:28:00,
2013-04-06 17:29:00,69.5,60.8,30.03,WNW,298,4.0,11.0,74,0.00,,,0.00,Wunderground v.1.15,2013-04-06 21:29:00,
2013-04-06 17:31:00,69.4,60.4,30.03,WNW,287,6.0,8.0,73,0.00,,,0.00,Wunderground v.1.15,2013-04-06 21:31:00,
2013-04-06 17:32:00,69.4,61.1,30.03,West,267,6.0,8.0,75,0.00,,,0.00,Wunderground v.1.15,2013-04-06 21:32:00,
2013-04-06 17:33:00,69.5,61.2,30.03,WNW,285,3.0,8.0,75,0.00,,,0.00,Wunderground v.1.15,2013-04-06 21:33:00,
2013-04-06 17:34:00,69.6,60.9,30.03,WNW,302,8.0,9.0,74,0.00,,,0.00,Wunderground v.1.15,2013-04-06 21:34:00,
2013-04-06 17:36:00,69.6,60.9,30.03,WNW,300,4.0,10.0,74,0.00,,,0.00,Wunderground v.1.15,2013-04-06 21:36:00,
2013-04-06 17:38:00,69.5,60.8,30.03,WNW,302,5.0,10.0,74,0.00,,,0.00,Wunderground v.1.15,2013-04-06 21:38:00,
2013-04-06 17:39:00,69.5,60.8,30.03,WNW,298,5.0,10.0,74,0.00,,,0.00,Wunderground v.1.15,2013-04-06 21:39:00,
2013-04-06 17:40:00,69.6,61.3,30.03,WNW,290,5.0,6.0,75,0.00,,,0.00,Wunderground v.1.15,2013-04-06 21:40:00,
2013-04-06 17:41:00,69.7,61.4,30.03,WSW,255,2.0,8.0,75,0.00,,,0.00,Wunderground v.1.15,2013-04-06 21:41:00,
2013-04-06 17:43:00,69.8,61.5,30.03,West,260,9.0,15.0,75,0.00,,,0.00,Wunderground v.1.15,2013-04-06 21:43:00,
2013-04-06 17:45:00,69.7,61.4,30.03,West,278,6.0,15.0,75,0.00,,,0.00,Wunderground v.1.15,2013-04-06 21:45:00,
2013-04-06 17:46:00,69.5,61.2,30.03,West,274,7.0,15.0,75,0.00,,,0.00,Wunderground v.1.15,2013-04-06 21:46:00,
2013-04-06 17:49:00,69.5,61.6,30.03,NW,319,6.0,15.0,76,0.00,,,0.00,Wunderground v.1.15,2013-04-06 21:49:00,
2013-04-06 17:50:00,69.5,61.2,30.03,West,271,12.0,12.0,75,0.00,,,0.00,Wunderground v.1.15,2013-04-06 21:50:00,
2013-04-06 17:52:00,69.3,61.0,30.03,WNW,294,7.0,12.0,75,0.00,,,0.00,Wunderground v.1.15,2013-04-06 21:52:00,
2013-04-06 17:55:00,69.1,61.2,30.03,West,270,5.0,12.0,76,0.00,,,0.00,Wunderground v.1.15,2013-04-06 21:55:00,
2013-04-06 17:56:00,69.0,61.1,30.03,WNW,288,7.0,12.0,76,0.00,,,0.00,Wunderground v.1.15,2013-04-06 21:56:00,
2013-04-06 17:57:00,68.9,61.0,30.03,WNW,294,7.0,12.0,76,0.00,,,0.00,Wunderground v.1.15,2013-04-06 21:57:00,
2013-04-06 18:00:00,68.8,61.3,30.03,West,280,5.0,8.0,77,0.00,,,0.00,Wunderground v.1.15,2013-04-06 22:00:00,
2013-04-06 18:01:00,68.9,61.8,30.03,West,267,2.0,8.0,78,0.00,,,0.00,Wunderground v.1.15,2013-04-06 22:01:00,
2013-04-06 18:02:00,69.1,61.9,30.04,NNW,336,2.0,8.0,78,0.00,,,0.00,Wunderground v.1.15,2013-04-06 22:02:00,
2013-04-06 18:05:00,69.2,61.7,30.04,West,271,4.0,8.0,77,0.00,,,0.00,Wunderground v.1.15,2013-04-06 22:05:00,
2013-04-06 18:06:00,69.4,62.2,30.04,West,281,7.0,8.0,78,0.00,,,0.00,Wunderground v.1.15,2013-04-06 22:06:00,
2013-04-06 18:07:00,69.4,61.9,30.04,West,269,5.0,8.0,77,0.00,,,0.00,Wunderground v.1.15,2013-04-06 22:07:00,
2013-04-06 18:10:00,69.2,61.7,30.03,WNW,290,5.0,6.0,77,0.00,,,0.00,Wunderground v.1.15,2013-04-06 22:10:00,
2013-04-06 18:11:00,69.1,61.2,30.03,WNW,295,5.0,9.0,76,0.00,,,0.00,Wunderground v.1.15,2013-04-06 22:11:00,
2013-04-06 18:12:00,69.1,61.6,30.03,West,276,9.0,9.0,77,0.00,,,0.00,Wunderground v.1.15,2013-04-06 22:12:00,
2013-04-06 18:15:00,68.9,61.4,30.03,WNW,297,3.0,9.0,77,0.00,,,0.00,Wunderground v.1.15,2013-04-06 22:15:00,
2013-04-06 18:17:00,68.9,61.4,30.03,WNW,289,7.0,9.0,77,0.00,,,0.00,Wunderground v.1.15,2013-04-06 22:17:00,
2013-04-06 18:20:00,68.7,61.6,30.03,NW,304,8.0,9.0,78,0.00,,,0.00,Wunderground v.1.15,2013-04-06 22:20:00,
2013-04-06 18:21:00,68.6,61.5,30.03,WNW,287,9.0,9.0,78,0.00,,,0.00,Wunderground v.1.15,2013-04-06 22:21:00,
2013-04-06 18:22:00,68.6,61.5,30.03,West,274,10.0,10.0,78,0.00,,,0.00,Wunderground v.1.15,2013-04-06 22:22:00,
2013-04-06 18:25:00,68.3,61.5,30.04,West,277,5.0,10.0,79,0.00,,,0.00,Wunderground v.1.15,2013-04-06 22:25:00,
2013-04-06 18:26:00,68.3,61.5,30.04,WNW,291,5.0,10.0,79,0.00,,,0.00,Wunderground v.1.15,2013-04-06 22:26:00,
2013-04-06 18:27:00,68.3,61.5,30.04,West,260,5.0,10.0,79,0.00,,,0.00,Wunderground v.1.15,2013-04-06 22:27:00,
2013-04-06 18:28:00,68.2,61.4,30.04,NNW,335,3.0,10.0,79,0.00,,,0.00,Wunderground v.1.15,2013-04-06 22:28:00,
2013-04-06 18:31:00,68.2,61.4,30.04,WNW,291,4.0,6.0,79,0.00,,,0.00,Wunderground v.1.15,2013-04-06 22:31:00,
2013-04-06 18:32:00,68.3,61.5,30.04,NW,305,4.0,6.0,79,0.00,,,0.00,Wunderground v.1.15,2013-04-06 22:32:00,
2013-04-06 18:33:00,68.3,61.5,30.04,WNW,283,3.0,8.0,79,0.00,,,0.00,Wunderground v.1.15,2013-04-06 22:33:00,
2013-04-06 18:36:00,68.4,61.6,30.04,West,278,1.0,8.0,79,0.00,,,0.00,Wunderground v.1.15,2013-04-06 22:36:00,
2013-04-06 18:37:00,68.4,61.6,30.04,WNW,290,4.0,8.0,79,0.00,,,0.00,Wunderground v.1.15,2013-04-06 22:37:00,
2013-04-06 18:38:00,68.3,61.5,30.04,NW,309,3.0,9.0,79,0.00,,,0.00,Wunderground v.1.15,2013-04-06 22:38:00,
2013-04-06 18:41:00,68.3,61.5,30.04,WNW,283,4.0,7.0,79,0.00,,,0.00,Wunderground v.1.15,2013-04-06 22:41:00,
2013-04-06 18:42:00,68.3,61.5,30.04,WSW,239,6.0,7.0,79,0.00,,,0.00,Wunderground v.1.15,2013-04-06 22:42:00,
2013-04-06 18:43:00,68.2,61.4,30.04,West,267,4.0,7.0,79,0.00,,,0.00,Wunderground v.1.15,2013-04-06 22:43:00,
2013-04-06 18:47:00,68.0,61.6,30.04,WNW,295,8.0,9.0,80,0.00,,,0.00,Wunderground v.1.15,2013-04-06 22:47:00,
2013-04-06 18:49:00,67.8,61.4,30.04,NW,312,6.0,9.0,80,0.00,,,0.00,Wunderground v.1.15,2013-04-06 22:49:00,
2013-04-06 18:52:00,67.7,61.3,30.04,WNW,297,5.0,10.0,80,0.00,,,0.00,Wunderground v.1.15,2013-04-06 22:52:00,
2013-04-06 18:53:00,67.8,61.4,30.04,NW,304,5.0,11.0,80,0.00,,,0.00,Wunderground v.1.15,2013-04-06 22:53:00,
2013-04-06 18:54:00,67.8,61.4,30.04,NW,312,3.0,11.0,80,0.00,,,0.00,Wunderground v.1.15,2013-04-06 22:54:00,
2013-04-06 18:57:00,68.0,61.6,30.04,NW,326,6.0,11.0,80,0.00,,,0.00,Wunderground v.1.15,2013-04-06 22:57:00,
2013-04-06 18:58:00,68.0,61.6,30.04,WSW,239,3.0,11.0,80,0.00,,,0.00,Wunderground v.1.15,2013-04-06 22:58:00,
2013-04-06 18:59:00,68.0,61.6,30.04,NW,321,2.0,11.0,80,0.00,,,0.00,Wunderground v.1.15,2013-04-06 22:59:00,
2013-04-06 19:02:00,68.0,61.6,30.04,WNW,285,6.0,10.0,80,0.00,,,0.00,Wunderground v.1.15,2013-04-06 23:02:00,
2013-04-06 19:03:00,68.0,61.6,30.04,West,259,5.0,10.0,80,0.00,,,0.00,Wunderground v.1.15,2013-04-06 23:03:00,
2013-04-06 19:04:00,68.0,61.6,30.04,West,280,7.0,10.0,80,0.00,,,0.00,Wunderground v.1.15,2013-04-06 23:04:00,
2013-04-06 19:08:00,67.9,61.5,30.04,WNW,291,8.0,10.0,80,0.00,,,0.00,Wunderground v.1.15,2013-04-06 23:08:00,
2013-04-06 19:09:00,67.9,61.5,30.05,NNW,343,2.0,10.0,80,0.00,,,0.00,Wunderground v.1.15,2013-04-06 23:09:00,
2013-04-06 19:14:00,67.9,61.5,30.04,NW,313,5.0,11.0,80,0.00,,,0.00,Wunderground v.1.15,2013-04-06 23:14:00,
2013-04-06 19:15:00,67.9,61.5,30.04,NW,310,8.0,11.0,80,0.00,,,0.00,Wunderground v.1.15,2013-04-06 23:15:00,
2013-04-06 19:19:00,67.8,61.4,30.05,WNW,291,6.0,11.0,80,0.00,,,0.00,Wunderground v.1.15,2013-04-06 23:19:00,
2013-04-06 19:20:00,67.8,61.4,30.05,WNW,283,5.0,6.0,80,0.00,,,0.00,Wunderground v.1.15,2013-04-06 23:20:00,
2013-04-06 19:24:00,67.6,61.2,30.05,West,269,4.0,10.0,80,0.00,,,0.00,Wunderground v.1.15,2013-04-06 23:24:00,
2013-04-06 19:25:00,67.5,61.1,30.05,NW,319,3.0,10.0,80,0.00,,,0.00,Wunderground v.1.15,2013-04-06 23:25:00,
2013-04-06 19:29:00,67.2,61.2,30.05,NW,319,9.0,11.0,81,0.00,,,0.00,Wunderground v.1.15,2013-04-06 23:29:00,
2013-04-06 19:30:00,67.1,61.1,30.05,WNW,291,5.0,11.0,81,0.00,,,0.00,Wunderground v.1.15,2013-04-06 23:30:00,
2013-04-06 19:34:00,66.9,61.2,30.05,West,277,8.0,11.0,82,0.00,,,0.00,Wunderground v.1.15,2013-04-06 23:34:00,
2013-04-06 19:35:00,66.9,61.2,30.05,NNW,334,4.0,11.0,82,0.00,,,0.00,Wunderground v.1.15,2013-04-06 23:35:00,
2013-04-06 19:36:00,66.9,61.2,30.05,NW,311,4.0,11.0,82,0.00,,,0.00,Wunderground v.1.15,2013-04-06 23:36:00,
2013-04-06 19:39:00,66.7,61.0,30.05,WNW,294,6.0,7.0,82,0.00,,,0.00,Wunderground v.1.15,2013-04-06 23:39:00,
2013-04-06 19:40:00,66.7,61.0,30.05,WNW,297,6.0,7.0,82,0.00,,,0.00,Wunderground v.1.15,2013-04-06 23:40:00,
2013-04-06 19:41:00,66.7,61.4,30.05,NW,321,5.0,9.0,83,0.00,,,0.00,Wunderground v.1.15,2013-04-06 23:41:00,
2013-04-06 19:44:00,66.6,61.3,30.06,WNW,301,6.0,10.0,83,0.00,,,0.00,Wunderground v.1.15,2013-04-06 23:44:00,
2013-04-06 19:45:00,66.6,61.3,30.05,WNW,293,6.0,10.0,83,0.00,,,0.00,Wunderground v.1.15,2013-04-06 23:45:00,
2013-04-06 19:46:00,66.6,61.3,30.05,NW,318,10.0,10.0,83,0.00,,,0.00,Wunderground v.1.15,2013-04-06 23:46:00,
2013-04-06 19:47:00,66.5,61.2,30.06,WNW,291,5.0,10.0,83,0.00,,,0.00,Wunderground v.1.15,2013-04-06 23:47:00,
2013-04-06 19:50:00,66.5,61.2,30.05,NW,307,3.0,6.0,83,0.00,,,0.00,Wunderground v.1.15,2013-04-06 23:50:00,
2013-04-06 19:52:00,66.5,61.2,30.06,WNW,302,7.0,7.0,83,0.00,,,0.00,Wunderground v.1.15,2013-04-06 23:52:00,
2013-04-06 19:55:00,66.5,61.2,30.06,NNW,342,5.0,7.0,83,0.00,,,0.00,Wunderground v.1.15,2013-04-06 23:55:00,
2013-04-06 19:57:00,66.4,61.4,30.05,WNW,283,6.0,8.0,84,0.00,,,0.00,Wunderground v.1.15,2013-04-06 23:57:00,
2013-04-06 20:00:00,66.4,61.1,30.06,NW,318,7.0,9.0,83,0.00,,,0.00,Wunderground v.1.15,2013-04-07 00:00:00,
2013-04-06 20:01:00,66.4,61.1,30.06,WNW,283,3.0,9.0,83,0.00,,,0.00,Wunderground v.1.15,2013-04-07 00:01:00,
2013-04-06 20:02:00,66.4,61.1,30.06,NW,326,4.0,9.0,83,0.00,,,0.00,Wunderground v.1.15,2013-04-07 00:02:00,
2013-04-06 20:03:00,66.4,61.1,30.06,West,281,3.0,9.0,83,0.00,,,0.00,Wunderground v.1.15,2013-04-07 00:03:00,
2013-04-06 20:05:00,66.3,61.0,30.06,WNW,297,6.0,9.0,83,0.00,,,0.00,Wunderground v.1.15,2013-04-07 00:05:00,
2013-04-06 20:06:00,66.3,61.0,30.06,NNW,348,6.0,9.0,83,0.00,,,0.00,Wunderground v.1.15,2013-04-07 00:06:00,
2013-04-06 20:07:00,66.3,61.0,30.06,WNW,291,8.0,9.0,83,0.00,,,0.00,Wunderground v.1.15,2013-04-07 00:07:00,
2013-04-06 20:09:00,66.3,61.0,30.06,WNW,290,5.0,10.0,83,0.00,,,0.00,Wunderground v.1.15,2013-04-07 00:09:00,
2013-04-06 20:11:00,66.3,61.3,30.06,WNW,283,5.0,7.0,84,0.00,,,0.00,Wunderground v.1.15,2013-04-07 00:11:00,
2013-04-06 20:12:00,66.3,61.3,30.06,WNW,297,5.0,7.0,84,0.00,,,0.00,Wunderground v.1.15,2013-04-07 00:12:00,
2013-04-06 20:15:00,66.3,61.3,30.06,WNW,298,9.0,9.0,84,0.00,,,0.00,Wunderground v.1.15,2013-04-07 00:15:00,
2013-04-06 20:16:00,66.3,61.3,30.06,NW,326,9.0,10.0,84,0.00,,,0.00,Wunderground v.1.15,2013-04-07 00:16:00,
2013-04-06 20:17:00,66.3,61.3,30.06,West,278,3.0,10.0,84,0.00,,,0.00,Wunderground v.1.15,2013-04-07 00:17:00,
2013-04-06 20:20:00,66.2,61.2,30.06,NW,309,6.0,6.0,84,0.00,,,0.00,Wunderground v.1.15,2013-04-07 00:20:00,
2013-04-06 20:22:00,66.2,61.2,30.06,NW,309,3.0,8.0,84,0.00,,,0.00,Wunderground v.1.15,2013-04-07 00:22:00,
2013-04-06 20:26:00,66.2,61.2,30.06,WNW,291,2.0,8.0,84,0.00,,,0.00,Wunderground v.1.15,2013-04-07 00:26:00,
2013-04-06 20:27:00,66.2,61.6,30.06,NW,309,3.0,8.0,85,0.00,,,0.00,Wunderground v.1.15,2013-04-07 00:27:00,
2013-04-06 20:31:00,66.2,61.6,30.07,West,274,5.0,5.0,85,0.00,,,0.00,Wunderground v.1.15,2013-04-07 00:31:00,
2013-04-06 20:32:00,66.2,61.6,30.07,NW,319,4.0,8.0,85,0.00,,,0.00,Wunderground v.1.15,2013-04-07 00:32:00,
2013-04-06 20:33:00,66.2,61.6,30.07,NNW,330,7.0,9.0,85,0.00,,,0.00,Wunderground v.1.15,2013-04-07 00:33:00,
2013-04-06 20:37:00,66.3,61.7,30.07,WSW,245,2.0,9.0,85,0.00,,,0.00,Wunderground v.1.15,2013-04-07 00:37:00,
2013-04-06 20:38:00,66.3,61.7,30.07,NNW,327,6.0,9.0,85,0.00,,,0.00,Wunderground v.1.15,2013-04-07 00:38:00,
2013-04-06 20:40:00,66.3,61.7,30.07,NW,315,7.0,7.0,85,0.00,,,0.00,Wunderground v.1.15,2013-04-07 00:40:00,
2013-04-06 20:42:00,66.3,61.7,30.07,NW,318,3.0,7.0,85,0.00,,,0.00,Wunderground v.1.15,2013-04-07 00:42:00,
2013-04-06 20:43:00,66.3,61.7,30.07,NNW,343,3.0,7.0,85,0.00,,,0.00,Wunderground v.1.15,2013-04-07 00:43:00,
2013-04-06 20:45:00,66.3,61.7,30.07,WNW,290,3.0,7.0,85,0.00,,,0.00,Wunderground v.1.15,2013-04-07 00:45:00,
2013-04-06 20:48:00,66.4,61.8,30.07,NNW,347,4.0,7.0,85,0.00,,,0.00,Wunderground v.1.15,2013-04-07 00:48:00,
2013-04-06 20:50:00,66.4,61.8,30.07,NNW,330,5.0,5.0,85,0.00,,,0.00,Wunderground v.1.15,2013-04-07 00:50:00,
2013-04-06 20:54:00,66.4,61.8,30.07,NW,307,5.0,11.0,85,0.00,,,0.00,Wunderground v.1.15,2013-04-07 00:54:00,
2013-04-06 20:55:00,66.4,61.8,30.07,WNW,301,7.0,11.0,85,0.00,,,0.00,Wunderground v.1.15,2013-04-07 00:55:00,
2013-04-06 20:59:00,66.4,61.4,30.07,NW,314,7.0,7.0,84,0.00,,,0.00,Wunderground v.1.15,2013-04-07 00:59:00,
2013-04-06 21:00:00,66.4,61.4,30.07,West,265,4.0,7.0,84,0.00,,,0.00,Wunderground v.1.15,2013-04-07 01:00:00,
2013-04-06 21:05:00,66.4,61.8,30.07,NW,323,4.0,7.0,85,0.00,,,0.00,Wunderground v.1.15,2013-04-07 01:05:00,
2013-04-06 21:07:00,66.4,61.4,30.07,NW,319,5.0,7.0,84,0.00,,,0.00,Wunderground v.1.15,2013-04-07 01:07:00,
2013-04-06 21:10:00,66.5,61.5,30.07,WNW,301,3.0,4.0,84,0.00,,,0.00,Wunderground v.1.15,2013-04-07 01:10:00,
2013-04-06 21:12:00,66.4,61.4,30.07,NNE,13,5.0,6.0,84,0.00,,,0.00,Wunderground v.1.15,2013-04-07 01:12:00,
2013-04-06 21:15:00,66.4,61.4,30.07,NW,312,4.0,6.0,84,0.00,,,0.00,Wunderground v.1.15,2013-04-07 01:15:00,
2013-04-06 21:16:00,66.4,61.4,30.07,NNW,340,2.0,6.0,84,0.00,,,0.00,Wunderground v.1.15,2013-04-07 01:16:00,
2013-04-06 21:17:00,66.4,61.1,30.08,NW,309,5.0,6.0,83,0.00,,,0.00,Wunderground v.1.15,2013-04-07 01:17:00,
2013-04-06 21:20:00,66.3,61.0,30.08,NW,320,2.0,3.0,83,0.00,,,0.00,Wunderground v.1.15,2013-04-07 01:20:00,
2013-04-06 21:22:00,66.3,61.0,30.08,North,356,3.0,4.0,83,0.00,,,0.00,Wunderground v.1.15,2013-04-07 01:22:00,
2013-04-06 21:27:00,66.2,60.9,30.08,North,351,4.0,4.0,83,0.00,,,0.00,Wunderground v.1.15,2013-04-07 01:27:00,
2013-04-06 21:28:00,66.2,60.9,30.08,NNW,334,2.0,4.0,83,0.00,,,0.00,Wunderground v.1.15,2013-04-07 01:28:00,
2013-04-06 21:32:00,66.1,61.1,30.08,North,5,2.0,3.0,84,0.00,,,0.00,Wunderground v.1.15,2013-04-07 01:32:00,
2013-04-06 21:33:00,66.1,61.1,30.08,NNE,23,3.0,3.0,84,0.00,,,0.00,Wunderground v.1.15,2013-04-07 01:33:00,
2013-04-06 21:34:00,66.1,61.1,30.08,NNE,30,2.0,4.0,84,0.00,,,0.00,Wunderground v.1.15,2013-04-07 01:34:00,
2013-04-06 21:37:00,65.9,60.9,30.08,NE,37,2.0,4.0,84,0.00,,,0.00,Wunderground v.1.15,2013-04-07 01:37:00,
2013-04-06 21:38:00,65.9,60.9,30.08,NE,37,1.0,4.0,84,0.00,,,0.00,Wunderground v.1.15,2013-04-07 01:38:00,
2013-04-06 21:39:00,65.8,60.8,30.08,NNW,343,1.0,4.0,84,0.00,,,0.00,Wunderground v.1.15,2013-04-07 01:39:00,
2013-04-06 21:42:00,65.7,60.7,30.08,North,7,3.0,3.0,84,0.00,,,0.00,Wunderground v.1.15,2013-04-07 01:42:00,
2013-04-06 21:43:00,65.7,60.7,30.08,NNW,342,3.0,3.0,84,0.00,,,0.00,Wunderground v.1.15,2013-04-07 01:43:00,
2013-04-06 21:45:00,65.6,60.6,30.08,NNW,345,3.0,4.0,84,0.00,,,0.00,Wunderground v.1.15,2013-04-07 01:45:00,
2013-04-06 21:48:00,65.6,61.0,30.08,NW,315,2.0,4.0,85,0.00,,,0.00,Wunderground v.1.15,2013-04-07 01:48:00,
2013-04-06 21:50:00,65.5,60.9,30.09,NNW,338,1.0,2.0,85,0.00,,,0.00,Wunderground v.1.15,2013-04-07 01:50:00,
2013-04-06 21:53:00,65.5,60.9,30.08,NNW,336,3.0,3.0,85,0.00,,,0.00,Wunderground v.1.15,2013-04-07 01:53:00,
2013-04-06 21:54:00,65.5,60.9,30.08,North,11,3.0,4.0,85,0.00,,,0.00,Wunderground v.1.15,2013-04-07 01:54:00,
2013-04-06 21:55:00,65.5,60.9,30.08,NNE,18,2.0,4.0,85,0.00,,,0.00,Wunderground v.1.15,2013-04-07 01:55:00,
2013-04-06 21:58:00,65.4,60.8,30.08,NNE,12,3.0,4.0,85,0.00,,,0.00,Wunderground v.1.15,2013-04-07 01:58:00,
2013-04-06 21:59:00,65.4,60.8,30.08,NNW,345,3.0,3.0,85,0.00,,,0.00,Wunderground v.1.15,2013-04-07 01:59:00,
2013-04-06 22:00:00,65.3,60.7,30.08,NNE,25,1.0,3.0,85,0.00,,,0.00,Wunderground v.1.15,2013-04-07 02:00:00,
2013-04-06 22:02:00,65.3,60.7,30.08,NNE,31,1.0,3.0,85,0.00,,,0.00,Wunderground v.1.15,2013-04-07 02:02:00,
2013-04-06 22:03:00,65.3,60.7,30.08,North,359,1.0,3.0,85,0.00,,,0.00,Wunderground v.1.15,2013-04-07 02:03:00,
2013-04-06 22:05:00,65.2,60.6,30.08,NNE,26,1.0,4.0,85,0.00,,,0.00,Wunderground v.1.15,2013-04-07 02:05:00,
2013-04-06 22:07:00,65.2,60.9,30.08,NNE,30,1.0,4.0,86,0.00,,,0.00,Wunderground v.1.15,2013-04-07 02:07:00,
2013-04-06 22:09:00,65.1,60.8,30.08,NNE,30,1.0,4.0,86,0.00,,,0.00,Wunderground v.1.15,2013-04-07 02:09:00,
2013-04-06 22:10:00,65.1,60.8,30.08,NNW,334,1.0,2.0,86,0.00,,,0.00,Wunderground v.1.15,2013-04-07 02:10:00,
2013-04-06 22:11:00,65.1,60.8,30.08,NNW,335,1.0,2.0,86,0.00,,,0.00,Wunderground v.1.15,2013-04-07 02:11:00,
2013-04-06 22:13:00,65.0,60.7,30.09,NNW,344,1.0,3.0,86,0.00,,,0.00,Wunderground v.1.15,2013-04-07 02:13:00,
2013-04-06 22:14:00,65.0,60.7,30.09,NNW,342,1.0,3.0,86,0.00,,,0.00,Wunderground v.1.15,2013-04-07 02:14:00,
2013-04-06 22:16:00,65.0,60.7,30.09,NNW,330,3.0,3.0,86,0.00,,,0.00,Wunderground v.1.15,2013-04-07 02:16:00,
2013-04-06 22:19:00,65.0,60.7,30.08,NNW,344,1.0,3.0,86,0.00,,,0.00,Wunderground v.1.15,2013-04-07 02:19:00,
2013-04-06 22:21:00,65.1,60.8,30.08,NNE,12,2.0,4.0,86,0.00,,,0.00,Wunderground v.1.15,2013-04-07 02:21:00,
2013-04-06 22:22:00,65.1,60.8,30.09,North,9,3.0,4.0,86,0.00,,,0.00,Wunderground v.1.15,2013-04-07 02:22:00,
2013-04-06 22:25:00,65.1,60.8,30.08,NNE,16,2.0,4.0,86,0.00,,,0.00,Wunderground v.1.15,2013-04-07 02:25:00,
2013-04-06 22:27:00,65.0,60.7,30.08,NNE,19,4.0,4.0,86,0.00,,,0.00,Wunderground v.1.15,2013-04-07 02:27:00,
2013-04-06 22:30:00,65.0,60.7,30.08,NNE,26,2.0,2.0,86,0.00,,,0.00,Wunderground v.1.15,2013-04-07 02:30:00,
2013-04-06 22:32:00,65.0,60.7,30.08,NNE,23,2.0,4.0,86,0.00,,,0.00,Wunderground v.1.15,2013-04-07 02:32:00,
2013-04-06 22:35:00,65.0,60.7,30.08,North,7,3.0,4.0,86,0.00,,,0.00,Wunderground v.1.15,2013-04-07 02:35:00,
2013-04-06 22:38:00,65.0,60.7,30.08,NNE,32,4.0,4.0,86,0.00,,,0.00,Wunderground v.1.15,2013-04-07 02:38:00,
2013-04-06 22:39:00,65.0,60.7,30.08,NE,38,2.0,4.0,86,0.00,,,0.00,Wunderground v.1.15,2013-04-07 02:39:00,
2013-04-06 22:40:00,65.0,60.7,30.08,North,353,2.0,4.0,86,0.00,,,0.00,Wunderground v.1.15,2013-04-07 02:40:00,
2013-04-06 22:44:00,65.0,60.7,30.08,NNE,22,1.0,4.0,86,0.00,,,0.00,Wunderground v.1.15,2013-04-07 02:44:00,
2013-04-06 22:45:00,65.0,60.7,30.08,NNE,13,3.0,4.0,86,0.00,,,0.00,Wunderground v.1.15,2013-04-07 02:45:00,
2013-04-06 22:47:00,65.0,60.7,30.08,NNE,19,4.0,4.0,86,0.00,,,0.00,Wunderground v.1.15,2013-04-07 02:47:00,
2013-04-06 22:49:00,64.9,60.6,30.08,NE,38,1.0,4.0,86,0.00,,,0.00,Wunderground v.1.15,2013-04-07 02:49:00,
2013-04-06 22:50:00,65.0,60.7,30.09,NE,39,2.0,2.0,86,0.00,,,0.00,Wunderground v.1.15,2013-04-07 02:50:00,
2013-04-06 22:52:00,64.9,60.6,30.09,NNE,18,1.0,3.0,86,0.00,,,0.00,Wunderground v.1.15,2013-04-07 02:52:00,
2013-04-06 22:54:00,64.9,60.6,30.09,NNE,20,2.0,4.0,86,0.00,,,0.00,Wunderground v.1.15,2013-04-07 02:54:00,
2013-04-06 22:55:00,64.9,60.6,30.09,NNE,20,1.0,4.0,86,0.00,,,0.00,Wunderground v.1.15,2013-04-07 02:55:00,
2013-04-06 22:56:00,64.9,60.6,30.09,NNE,25,1.0,4.0,86,0.00,,,0.00,Wunderground v.1.15,2013-04-07 02:56:00,
2013-04-06 22:57:00,64.9,60.6,30.09,NNE,26,1.0,4.0,86,0.00,,,0.00,Wunderground v.1.15,2013-04-07 02:57:00,
2013-04-06 23:00:00,64.8,60.5,30.09,NNE,13,1.0,2.0,86,0.00,,,0.00,Wunderground v.1.15,2013-04-07 03:00:00,
2013-04-06 23:01:00,64.8,60.5,30.09,NNE,31,3.0,3.0,86,0.00,,,0.00,Wunderground v.1.15,2013-04-07 03:01:00,
2013-04-06 23:02:00,64.8,60.5,30.09,NNE,29,2.0,3.0,86,0.00,,,0.00,Wunderground v.1.15,2013-04-07 03:02:00,
2013-04-06 23:05:00,64.8,60.5,30.09,NNE,22,2.0,3.0,86,0.00,,,0.00,Wunderground v.1.15,2013-04-07 03:05:00,
2013-04-06 23:06:00,64.8,60.5,30.09,NNW,342,0.0,3.0,86,0.00,,,0.00,Wunderground v.1.15,2013-04-07 03:06:00,
2013-04-06 23:07:00,64.8,60.5,30.09,NNE,32,3.0,4.0,86,0.00,,,0.00,Wunderground v.1.15,2013-04-07 03:07:00,
2013-04-06 23:10:00,64.8,60.5,30.09,NNE,15,2.0,3.0,86,0.00,,,0.00,Wunderground v.1.15,2013-04-07 03:10:00,
2013-04-06 23:11:00,64.8,60.5,30.09,NNE,20,0.0,3.0,86,0.00,,,0.00,Wunderground v.1.15,2013-04-07 03:11:00,
2013-04-06 23:12:00,64.8,60.5,30.09,NNE,20,0.0,3.0,86,0.00,,,0.00,Wunderground v.1.15,2013-04-07 03:12:00,
2013-04-06 23:15:00,64.8,60.5,30.09,NE,56,3.0,3.0,86,0.00,,,0.00,Wunderground v.1.15,2013-04-07 03:15:00,
2013-04-06 23:17:00,64.8,60.5,30.09,NE,49,3.0,3.0,86,0.00,,,0.00,Wunderground v.1.15,2013-04-07 03:17:00,
2013-04-06 23:21:00,64.8,60.5,30.09,NE,40,2.0,3.0,86,0.00,,,0.00,Wunderground v.1.15,2013-04-07 03:21:00,
2013-04-06 23:22:00,64.7,60.4,30.09,NE,40,2.0,3.0,86,0.00,,,0.00,Wunderground v.1.15,2013-04-07 03:22:00,
2013-04-06 23:27:00,64.7,60.4,30.09,NE,56,3.0,3.0,86,0.00,,,0.00,Wunderground v.1.15,2013-04-07 03:27:00,
2013-04-06 23:28:00,64.7,60.4,30.09,NE,41,1.0,3.0,86,0.00,,,0.00,Wunderground v.1.15,2013-04-07 03:28:00,
2013-04-06 23:32:00,64.7,60.1,30.09,ENE,63,1.0,3.0,85,0.00,,,0.00,Wunderground v.1.15,2013-04-07 03:32:00,
2013-04-06 23:33:00,64.7,60.1,30.09,ENE,60,1.0,3.0,85,0.00,,,0.00,Wunderground v.1.15,2013-04-07 03:33:00,
2013-04-06 23:37:00,64.7,60.1,30.09,ENE,73,2.0,3.0,85,0.00,,,0.00,Wunderground v.1.15,2013-04-07 03:37:00,
2013-04-06 23:39:00,64.7,60.1,30.09,ENE,69,2.0,3.0,85,0.00,,,0.00,Wunderground v.1.15,2013-04-07 03:39:00,
2013-04-06 23:40:00,64.7,60.1,30.09,ENE,61,3.0,3.0,85,0.00,,,0.00,Wunderground v.1.15,2013-04-07 03:40:00,
2013-04-06 23:42:00,64.7,60.1,30.09,NE,54,2.0,3.0,85,0.00,,,0.00,Wunderground v.1.15,2013-04-07 03:42:00,
2013-04-06 23:44:00,64.7,60.1,30.09,NE,52,2.0,4.0,85,0.00,,,0.00,Wunderground v.1.15,2013-04-07 03:44:00,
2013-04-06 23:45:00,64.7,60.1,30.09,NE,56,2.0,4.0,85,0.00,,,0.00,Wunderground v.1.15,2013-04-07 03:45:00,
2013-04-06 23:47:00,64.7,59.8,30.09,ENE,71,2.0,4.0,84,0.00,,,0.00,Wunderground v.1.15,2013-04-07 03:47:00,
2013-04-06 23:48:00,64.7,59.8,30.09,ENE,67,3.0,4.0,84,0.00,,,0.00,Wunderground v.1.15,2013-04-07 03:48:00,
2013-04-06 23:50:00,64.7,59.8,30.09,NE,51,3.0,3.0,84,0.00,,,0.00,Wunderground v.1.15,2013-04-07 03:50:00,
2013-04-06 23:52:00,64.7,59.8,30.09,ENE,63,2.0,5.0,84,0.00,,,0.00,Wunderground v.1.15,2013-04-07 03:52:00,
2013-04-06 23:55:00,64.8,59.9,30.09,ENE,66,1.0,5.0,84,0.00,,,0.00,Wunderground v.1.15,2013-04-07 03:55:00,
2013-04-06 23:57:00,64.8,59.9,30.09,ENE,60,2.0,5.0,84,0.00,,,0.00,Wunderground v.1.15,2013-04-07 03:57:00,